| time (UTC) | temp C | wind direction | speed KPH | gust KPH | rain 1hr cm | rain 24hr cm | rain mn cm | humidity % | barometer mb |
| 20260509093743 | 20 | 90 | 6.4 | 0.0 | 0.00 | 0.00 | 0.00 | 41 | 1065.8 |
| 20260509093631 | 20 | 112 | 8.0 | 0.0 | 0.00 | 0.00 | 0.00 | 41 | 1065.8 |
| 20260509093517 | 20 | 112 | 9.7 | 0.0 | 0.00 | 0.00 | 0.00 | 42 | 1065.9 |
| 20260509093357 | 19 | 112 | 9.7 | 0.0 | 0.00 | 0.00 | 0.00 | 43 | 1065.9 |
| 20260509093244 | 18 | 112 | 9.7 | 0.0 | 0.00 | 0.00 | 0.00 | 43 | 1065.9 |
| 20260509093130 | 18 | 135 | 9.7 | 0.0 | 0.00 | 0.00 | 0.00 | 43 | 1065.9 |
| 20260509093010 | 18 | 135 | 4.8 | 0.0 | 0.00 | 0.00 | 0.00 | 44 | 1065.9 |
| 20260509092856 | 18 | 112 | 8.0 | 0.0 | 0.00 | 0.00 | 0.00 | 45 | 1065.9 |
| 20260509092737 | 18 | 135 | 3.2 | 0.0 | 0.00 | 0.00 | 0.00 | 45 | 1065.9 |
| 20260509092630 | 18 | 180 | 8.0 | 0.0 | 0.00 | 0.00 | 0.00 | 44 | 1065.9 |
| 20260509092518 | 18 | 157 | 9.7 | 0.0 | 0.00 | 0.00 | 0.00 | 44 | 1065.9 |
| 20260509092412 | 18 | 112 | 11.3 | 0.0 | 0.00 | 0.00 | 0.00 | 43 | 1065.9 |
| 20260509092259 | 18 | 135 | 14.5 | 0.0 | 0.00 | 0.00 | 0.00 | 44 | 1065.9 |
| 20260509092138 | 18 | 157 | 12.9 | 0.0 | 0.00 | 0.00 | 0.00 | 44 | 1065.8 |
| 20260509092017 | 18 | 135 | 8.0 | 0.0 | 0.00 | 0.00 | 0.00 | 44 | 1065.9 |
| 20260509091855 | 18 | 180 | 11.3 | 0.0 | 0.00 | 0.00 | 0.00 | 45 | 1065.9 |
| 20260509091734 | 18 | 135 | 3.2 | 0.0 | 0.00 | 0.00 | 0.00 | 44 | 1065.9 |
| 20260509091613 | 18 | 135 | 8.0 | 0.0 | 0.00 | 0.00 | 0.00 | 42 | 1065.8 |
| 20260509091500 | 18 | 157 | 9.7 | 0.0 | 0.00 | 0.00 | 0.00 | 41 | 1065.9 |
| 20260509091332 | 19 | 180 | 9.7 | 0.0 | 0.00 | 0.00 | 0.00 | 42 | 1065.9 |
| 20260509091210 | 19 | 157 | 9.7 | 0.0 | 0.00 | 0.00 | 0.00 | 42 | 1065.9 |
| 20260509091058 | 19 | 135 | 0.0 | 0.0 | 0.00 | 0.00 | 0.00 | 42 | 1065.9 |
| 20260509090943 | 19 | 135 | 8.0 | 0.0 | 0.00 | 0.00 | 0.00 | 42 | 1065.9 |
| 20260509090831 | 19 | 135 | 12.9 | 0.0 | 0.00 | 0.00 | 0.00 | 42 | 1065.9 |
| 20260509090718 | 19 | 135 | 11.3 | 0.0 | 0.00 | 0.00 | 0.00 | 42 | 1065.9 |
| 20260509090606 | 19 | 157 | 14.5 | 0.0 | 0.00 | 0.00 | 0.00 | 42 | 1065.8 |
| 20260509090459 | 19 | 112 | 1.6 | 0.0 | 0.00 | 0.00 | 0.00 | 43 | 1065.9 |
| 20260509090338 | 18 | 135 | 12.9 | 0.0 | 0.00 | 0.00 | 0.00 | 44 | 1065.8 |
| 20260509090216 | 18 | 90 | 3.2 | 0.0 | 0.00 | 0.00 | 0.00 | 44 | 1065.9 |
| 20260509090055 | 18 | 135 | 6.4 | 0.0 | 0.00 | 0.00 | 0.00 | 44 | 1065.8 |
| 20260509085934 | 18 | 135 | 6.4 | 0.0 | 0.00 | 0.00 | 0.00 | 42 | 1065.8 |
| 20260509085821 | 18 | 157 | 9.7 | 0.0 | 0.00 | 0.00 | 0.00 | 41 | 1065.8 |
| 20260509085658 | 18 | 157 | 14.5 | 0.0 | 0.00 | 0.00 | 0.00 | 40 | 1065.8 |
| 20260509085530 | 19 | 135 | 16.1 | 0.0 | 0.00 | 0.00 | 0.00 | 39 | 1065.8 |
| 20260509085410 | 19 | 135 | 20.9 | 0.0 | 0.00 | 0.00 | 0.00 | 40 | 1065.8 |
| 20260509085306 | 19 | 112 | 11.3 | 0.0 | 0.00 | 0.00 | 0.00 | 42 | 1065.7 |
| 20260509085143 | 18 | 90 | 3.2 | 0.0 | 0.00 | 0.00 | 0.00 | 44 | 1065.7 |
| 20260509085030 | 18 | 135 | 9.7 | 0.0 | 0.00 | 0.00 | 0.00 | 44 | 1065.7 |
| 20260509084924 | 17 | 90 | 16.1 | 0.0 | 0.00 | 0.00 | 0.00 | 43 | 1065.8 |
| 20260509084803 | 17 | 135 | 9.7 | 0.0 | 0.00 | 0.00 | 0.00 | 42 | 1065.8 |
| 20260509084643 | 17 | 90 | 14.5 | 0.0 | 0.00 | 0.00 | 0.00 | 43 | 1065.8 |
| 20260509084537 | 17 | 135 | 9.7 | 0.0 | 0.00 | 0.00 | 0.00 | 43 | 1065.8 |
| 20260509084424 | 17 | 112 | 9.7 | 0.0 | 0.00 | 0.00 | 0.00 | 43 | 1065.8 |
| 20260509084303 | 18 | 112 | 8.0 | 0.0 | 0.00 | 0.00 | 0.00 | 43 | 1065.8 |
| 20260509084142 | 18 | 112 | 9.7 | 0.0 | 0.00 | 0.00 | 0.00 | 42 | 1065.8 |
| 20260509084022 | 18 | 135 | 6.4 | 0.0 | 0.00 | 0.00 | 0.00 | 43 | 1065.8 |
| 20260509083918 | 18 | 112 | 4.8 | 0.0 | 0.00 | 0.00 | 0.00 | 41 | 1065.8 |
| 20260509083813 | 18 | 45 | 8.0 | 0.0 | 0.00 | 0.00 | 0.00 | 42 | 1065.8 |
| 20260509083705 | 19 | 112 | 6.4 | 0.0 | 0.00 | 0.00 | 0.00 | 41 | 1065.8 |
| 20260509083544 | 20 | 135 | 12.9 | 0.0 | 0.00 | 0.00 | 0.00 | 39 | 1065.8 |
| 20260509083423 | 20 | 135 | 11.3 | 0.0 | 0.00 | 0.00 | 0.00 | 39 | 1065.8 |
| 20260509083310 | 20 | 112 | 0.0 | 0.0 | 0.00 | 0.00 | 0.00 | 37 | 1065.8 |
| 20260509083157 | 20 | 67 | 11.3 | 0.0 | 0.00 | 0.00 | 0.00 | 37 | 1065.8 |
| 20260509083034 | 21 | 112 | 11.3 | 0.0 | 0.00 | 0.00 | 0.00 | 39 | 1065.8 |
| 20260509082922 | 21 | 90 | 11.3 | 0.0 | 0.00 | 0.00 | 0.00 | 39 | 1065.9 |
| 20260509082808 | 21 | 112 | 11.3 | 0.0 | 0.00 | 0.00 | 0.00 | 39 | 1065.9 |
| 20260509082659 | 21 | 22 | 4.8 | 0.0 | 0.00 | 0.00 | 0.00 | 40 | 1066.0 |
| 20260509082551 | 21 | 135 | 16.1 | 0.0 | 0.00 | 0.00 | 0.00 | 39 | 1066.0 |
| 20260509082440 | 21 | 135 | 9.7 | 0.0 | 0.00 | 0.00 | 0.00 | 40 | 1066.0 |
| 20260509082333 | 21 | 157 | 8.0 | 0.0 | 0.00 | 0.00 | 0.00 | 40 | 1066.1 |
| 20260509082219 | 21 | 157 | 11.3 | 0.0 | 0.00 | 0.00 | 0.00 | 41 | 1066.0 |
| 20260509082101 | 21 | 135 | 8.0 | 0.0 | 0.00 | 0.00 | 0.00 | 41 | 1066.0 |
| 20260509081947 | 21 | 112 | 12.9 | 0.0 | 0.00 | 0.00 | 0.00 | 42 | 1066.0 |
| 20260509081843 | 21 | 112 | 0.0 | 0.0 | 0.00 | 0.00 | 0.00 | 43 | 1066.0 |
| 20260509081735 | 20 | 112 | 4.8 | 0.0 | 0.00 | 0.00 | 0.00 | 43 | 1066.1 |
| 20260509081622 | 20 | 135 | 9.7 | 0.0 | 0.00 | 0.00 | 0.00 | 43 | 1066.0 |
| 20260509081454 | 20 | 135 | 8.0 | 0.0 | 0.00 | 0.00 | 0.00 | 42 | 1066.0 |
| 20260509081340 | 20 | 67 | 9.7 | 0.0 | 0.00 | 0.00 | 0.00 | 42 | 1066.0 |
| 20260509081226 | 20 | 112 | 9.7 | 0.0 | 0.00 | 0.00 | 0.00 | 41 | 1066.1 |
| 20260509081114 | 20 | 90 | 11.3 | 0.0 | 0.00 | 0.00 | 0.00 | 42 | 1066.1 |
| 20260509080953 | 21 | 90 | 16.1 | 0.0 | 0.00 | 0.00 | 0.00 | 42 | 1066.2 |
| 20260509080847 | 21 | 112 | 9.7 | 0.0 | 0.00 | 0.00 | 0.00 | 43 | 1066.1 |
| 20260509080725 | 21 | 112 | 14.5 | 0.0 | 0.00 | 0.00 | 0.00 | 44 | 1066.1 |
| 20260509080606 | 21 | 112 | 0.0 | 0.0 | 0.00 | 0.00 | 0.00 | 44 | 1066.0 |
| 20260509080500 | 21 | 135 | 0.0 | 0.0 | 0.00 | 0.00 | 0.00 | 45 | 1066.1 |
| 20260509080355 | 20 | 135 | 0.0 | 0.0 | 0.00 | 0.00 | 0.00 | 44 | 1066.1 |
| 20260509080250 | 20 | 135 | 3.2 | 0.0 | 0.00 | 0.00 | 0.00 | 43 | 1065.9 |
| 20260509080129 | 21 | 135 | 9.7 | 0.0 | 0.00 | 0.00 | 0.00 | 43 | 1066.0 |
| 20260509080025 | 21 | 135 | 11.3 | 0.0 | 0.00 | 0.00 | 0.00 | 42 | 1066.0 |
| 20260509075918 | 21 | 112 | 4.8 | 0.0 | 0.00 | 0.00 | 0.00 | 43 | 1066.1 |
| 20260509075757 | 21 | 67 | 3.2 | 0.0 | 0.00 | 0.00 | 0.00 | 44 | 1066.0 |
| 20260509075646 | 21 | 112 | 4.8 | 0.0 | 0.00 | 0.00 | 0.00 | 45 | 1066.2 |
| 20260509075531 | 20 | 157 | 6.4 | 0.0 | 0.00 | 0.00 | 0.00 | 46 | 1066.0 |
| 20260509075409 | 20 | 135 | 3.2 | 0.0 | 0.00 | 0.00 | 0.00 | 45 | 1066.1 |
| 20260509075239 | 20 | 135 | 9.7 | 0.0 | 0.00 | 0.00 | 0.00 | 45 | 1066.2 |
| 20260509075120 | 21 | 67 | 6.4 | 0.0 | 0.00 | 0.00 | 0.00 | 44 | 1066.0 |
| 20260509074957 | 21 | 135 | 12.9 | 0.0 | 0.00 | 0.00 | 0.00 | 45 | 1066.1 |
| 20260509074845 | 21 | 157 | 9.7 | 0.0 | 0.00 | 0.00 | 0.00 | 45 | 1066.2 |
| 20260509074734 | 21 | 135 | 11.3 | 0.0 | 0.00 | 0.00 | 0.00 | 46 | 1066.0 |
| 20260509074626 | 21 | 112 | 8.0 | 0.0 | 0.00 | 0.00 | 0.00 | 47 | 1066.1 |
| 20260509074506 | 20 | 90 | 8.0 | 0.0 | 0.00 | 0.00 | 0.00 | 48 | 1066.1 |
| 20260509074352 | 20 | 112 | 8.0 | 0.0 | 0.00 | 0.00 | 0.00 | 48 | 1066.2 |
| 20260509074233 | 20 | 135 | 9.7 | 0.0 | 0.00 | 0.00 | 0.00 | 48 | 1066.2 |
| 20260509074125 | 20 | 135 | 3.2 | 0.0 | 0.00 | 0.00 | 0.00 | 49 | 1066.1 |
| 20260509074012 | 20 | 135 | 1.6 | 0.0 | 0.00 | 0.00 | 0.00 | 48 | 1066.1 |
| 20260509073859 | 20 | 135 | 8.0 | 0.0 | 0.00 | 0.00 | 0.00 | 47 | 1066.1 |
| 20260509073730 | 20 | 67 | 9.7 | 0.0 | 0.00 | 0.00 | 0.00 | 49 | 1066.1 |
| 20260509073609 | 20 | 135 | 6.4 | 0.0 | 0.00 | 0.00 | 0.00 | 49 | 1066.1 |
| 20260509073456 | 20 | 112 | 11.3 | 0.0 | 0.00 | 0.00 | 0.00 | 49 | 1066.1 |
| 20260509073343 | 20 | 112 | 9.7 | 0.0 | 0.00 | 0.00 | 0.00 | 50 | 1066.0 |
| 20260509073230 | 19 | 135 | 6.4 | 0.0 | 0.00 | 0.00 | 0.00 | 49 | 1066.2 |
| 20260509073108 | 19 | 135 | 11.3 | 0.0 | 0.00 | 0.00 | 0.00 | 50 | 1066.1 |
| 20260509072954 | 19 | 135 | 8.0 | 0.0 | 0.00 | 0.00 | 0.00 | 50 | 1066.1 |
| 20260509072834 | 19 | 135 | 11.3 | 0.0 | 0.00 | 0.00 | 0.00 | 50 | 1066.0 |
| 20260509072713 | 19 | 135 | 6.4 | 0.0 | 0.00 | 0.00 | 0.00 | 49 | 1066.0 |
| 20260509072559 | 20 | 157 | 8.0 | 0.0 | 0.00 | 0.00 | 0.00 | 49 | 1066.0 |
| 20260509072439 | 20 | 157 | 14.5 | 0.0 | 0.00 | 0.00 | 0.00 | 49 | 1065.9 |
| 20260509072325 | 20 | 112 | 8.0 | 0.0 | 0.00 | 0.00 | 0.00 | 51 | 1065.9 |
| 20260509072212 | 20 | 135 | 8.0 | 0.0 | 0.00 | 0.00 | 0.00 | 51 | 1065.9 |
| 20260509072101 | 20 | 135 | 8.0 | 0.0 | 0.00 | 0.00 | 0.00 | 51 | 1066.0 |
| 20260509071953 | 19 | 135 | 11.3 | 0.0 | 0.00 | 0.00 | 0.00 | 52 | 1066.0 |
| 20260509071841 | 19 | 135 | 0.0 | 0.0 | 0.00 | 0.00 | 0.00 | 53 | 1066.0 |
| 20260509071728 | 18 | 157 | 6.4 | 0.0 | 0.00 | 0.00 | 0.00 | 54 | 1066.1 |
| 20260509071614 | 18 | 112 | 9.7 | 0.0 | 0.00 | 0.00 | 0.00 | 54 | 1066.0 |
| 20260509071501 | 18 | 135 | 0.0 | 0.0 | 0.00 | 0.00 | 0.00 | 54 | 1065.9 |
| 20260509071348 | 18 | 180 | 9.7 | 0.0 | 0.00 | 0.00 | 0.00 | 54 | 1066.0 |
| 20260509071235 | 18 | 112 | 8.0 | 0.0 | 0.00 | 0.00 | 0.00 | 54 | 1066.0 |
| 20260509071123 | 18 | 135 | 11.3 | 0.0 | 0.00 | 0.00 | 0.00 | 54 | 1066.1 |
| 20260509071018 | 18 | 135 | 9.7 | 0.0 | 0.00 | 0.00 | 0.00 | 54 | 1066.2 |
| 20260509070903 | 18 | 135 | 3.2 | 0.0 | 0.00 | 0.00 | 0.00 | 56 | 1066.1 |
| 20260509070744 | 17 | 135 | 9.7 | 0.0 | 0.00 | 0.00 | 0.00 | 56 | 1066.1 |
| 20260509070637 | 17 | 135 | 12.9 | 0.0 | 0.00 | 0.00 | 0.00 | 56 | 1066.0 |
| 20260509070524 | 17 | 135 | 4.8 | 0.0 | 0.00 | 0.00 | 0.00 | 56 | 1066.0 |
| 20260509070403 | 17 | 135 | 8.0 | 0.0 | 0.00 | 0.00 | 0.00 | 55 | 1066.0 |
| 20260509070250 | 17 | 135 | 9.7 | 0.0 | 0.00 | 0.00 | 0.00 | 56 | 1065.9 |
| 20260509070129 | 17 | 157 | 11.3 | 0.0 | 0.00 | 0.00 | 0.00 | 57 | 1066.1 |
| 20260509070008 | 17 | 135 | 0.0 | 0.0 | 0.00 | 0.00 | 0.00 | 57 | 1066.3 |
| 20260509065854 | 17 | 157 | 3.2 | 0.0 | 0.00 | 0.00 | 0.00 | 56 | 1066.1 |
| 20260509065740 | 17 | 135 | 8.0 | 0.0 | 0.00 | 0.00 | 0.00 | 57 | 1066.0 |
| 20260509065627 | 17 | 157 | 4.8 | 0.0 | 0.00 | 0.00 | 0.00 | 58 | 1065.9 |
| 20260509065457 | 16 | 157 | 8.0 | 0.0 | 0.00 | 0.00 | 0.00 | 57 | 1066.0 |
| 20260509065329 | 16 | 135 | 9.7 | 0.0 | 0.00 | 0.00 | 0.00 | 59 | 1066.0 |
| 20260509065224 | 16 | 112 | 8.0 | 0.0 | 0.00 | 0.00 | 0.00 | 59 | 1065.9 |
| 20260509065110 | 16 | 135 | 8.0 | 0.0 | 0.00 | 0.00 | 0.00 | 59 | 1066.0 |
| 20260509064949 | 16 | 112 | 9.7 | 0.0 | 0.00 | 0.00 | 0.00 | 60 | 1065.9 |
| 20260509064827 | 16 | 135 | 6.4 | 0.0 | 0.00 | 0.00 | 0.00 | 60 | 1065.9 |
| 20260509064707 | 16 | 135 | 9.7 | 0.0 | 0.00 | 0.00 | 0.00 | 61 | 1066.0 |
| 20260509064554 | 15 | 157 | 6.4 | 0.0 | 0.00 | 0.00 | 0.00 | 61 | 1065.9 |
| 20260509064448 | 15 | 180 | 11.3 | 0.0 | 0.00 | 0.00 | 0.00 | 61 | 1066.0 |
| 20260509064328 | 15 | 180 | 12.9 | 0.0 | 0.00 | 0.00 | 0.00 | 61 | 1065.9 |
| 20260509064222 | 15 | 135 | 8.0 | 0.0 | 0.00 | 0.00 | 0.00 | 61 | 1066.0 |
| 20260509064109 | 15 | 157 | 6.4 | 0.0 | 0.00 | 0.00 | 0.00 | 62 | 1066.0 |
| 20260509063956 | 15 | 135 | 6.4 | 0.0 | 0.00 | 0.00 | 0.00 | 62 | 1065.9 |
| 20260509063834 | 15 | 135 | 12.9 | 0.0 | 0.00 | 0.00 | 0.00 | 62 | 1065.9 |
| 20260509063714 | 15 | 157 | 16.1 | 0.0 | 0.00 | 0.00 | 0.00 | 62 | 1065.9 |
| 20260509063609 | 15 | 135 | 9.7 | 0.0 | 0.00 | 0.00 | 0.00 | 62 | 1066.0 |
| 20260509063449 | 15 | 112 | 12.9 | 0.0 | 0.00 | 0.00 | 0.00 | 62 | 1066.0 |
| 20260509063344 | 15 | 135 | 4.8 | 0.0 | 0.00 | 0.00 | 0.00 | 62 | 1066.0 |
| 20260509063237 | 15 | 112 | 8.0 | 0.0 | 0.00 | 0.00 | 0.00 | 63 | 1065.9 |
| 20260509063124 | 15 | 112 | 11.3 | 0.0 | 0.00 | 0.00 | 0.00 | 63 | 1065.9 |
| 20260509063011 | 15 | 135 | 9.7 | 0.0 | 0.00 | 0.00 | 0.00 | 63 | 1066.0 |
| 20260509062906 | 15 | 112 | 8.0 | 0.0 | 0.00 | 0.00 | 0.00 | 63 | 1066.0 |
| 20260509062737 | 15 | 157 | 12.9 | 0.0 | 0.00 | 0.00 | 0.00 | 62 | 1066.0 |
| 20260509062624 | 15 | 135 | 12.9 | 0.0 | 0.00 | 0.00 | 0.00 | 62 | 1066.0 |
| 20260509062456 | 15 | 135 | 9.7 | 0.0 | 0.00 | 0.00 | 0.00 | 63 | 1065.9 |
| 20260509062351 | 15 | 135 | 12.9 | 0.0 | 0.00 | 0.00 | 0.00 | 63 | 1066.0 |
| 20260509062244 | 15 | 135 | 9.7 | 0.0 | 0.00 | 0.00 | 0.00 | 63 | 1066.0 |
| 20260509062131 | 15 | 135 | 9.7 | 0.0 | 0.00 | 0.00 | 0.00 | 63 | 1066.0 |
| 20260509062026 | 15 | 135 | 9.7 | 0.0 | 0.00 | 0.00 | 0.00 | 63 | 1066.0 |
| 20260509061913 | 15 | 135 | 12.9 | 0.0 | 0.00 | 0.00 | 0.00 | 63 | 1066.0 |
| 20260509061801 | 15 | 157 | 9.7 | 0.0 | 0.00 | 0.00 | 0.00 | 62 | 1066.0 |
| 20260509061655 | 15 | 112 | 11.3 | 0.0 | 0.00 | 0.00 | 0.00 | 62 | 1066.0 |
| 20260509061542 | 15 | 135 | 16.1 | 0.0 | 0.00 | 0.00 | 0.00 | 62 | 1066.1 |
| 20260509061428 | 15 | 157 | 14.5 | 0.0 | 0.00 | 0.00 | 0.00 | 63 | 1066.0 |
| 20260509061259 | 15 | 157 | 3.2 | 0.0 | 0.00 | 0.00 | 0.00 | 63 | 1065.9 |
| 20260509061145 | 15 | 112 | 3.2 | 0.0 | 0.00 | 0.00 | 0.00 | 63 | 1065.9 |
| 20260509061025 | 15 | 157 | 6.4 | 0.0 | 0.00 | 0.00 | 0.00 | 63 | 1066.0 |
| 20260509060913 | 15 | 112 | 8.0 | 0.0 | 0.00 | 0.00 | 0.00 | 64 | 1066.0 |
| 20260509060759 | 15 | 135 | 3.2 | 0.0 | 0.00 | 0.00 | 0.00 | 64 | 1066.0 |
| 20260509060654 | 15 | 135 | 6.4 | 0.0 | 0.00 | 0.00 | 0.00 | 64 | 1066.0 |
| 20260509060548 | 15 | 135 | 6.4 | 0.0 | 0.00 | 0.00 | 0.00 | 65 | 1066.0 |
| 20260509060435 | 15 | 135 | 4.8 | 0.0 | 0.00 | 0.00 | 0.00 | 64 | 1066.0 |
| 20260509060321 | 15 | 157 | 8.0 | 0.0 | 0.00 | 0.00 | 0.00 | 64 | 1065.9 |
| 20260509060211 | 15 | 157 | 9.7 | 0.0 | 0.00 | 0.00 | 0.00 | 65 | 1066.0 |
| 20260509060106 | 15 | 135 | 6.4 | 0.0 | 0.00 | 0.00 | 0.00 | 65 | 1066.0 |
| 20260509055958 | 15 | 135 | 8.0 | 0.0 | 0.00 | 0.00 | 0.00 | 65 | 1066.0 |
| 20260509055836 | 15 | 157 | 4.8 | 0.0 | 0.00 | 0.00 | 0.00 | 65 | 1066.0 |
| 20260509055716 | 14 | 135 | 4.8 | 0.0 | 0.00 | 0.00 | 0.00 | 65 | 1066.0 |
| 20260509055603 | 14 | 157 | 3.2 | 0.0 | 0.00 | 0.00 | 0.00 | 65 | 1066.0 |
| 20260509055458 | 14 | 157 | 9.7 | 0.0 | 0.00 | 0.00 | 0.00 | 65 | 1065.9 |
| 20260509055329 | 14 | 112 | 3.2 | 0.0 | 0.00 | 0.00 | 0.00 | 65 | 1065.9 |
| 20260509055215 | 14 | 135 | 11.3 | 0.0 | 0.00 | 0.00 | 0.00 | 66 | 1066.0 |
| 20260509055046 | 14 | 135 | 8.0 | 0.0 | 0.00 | 0.00 | 0.00 | 67 | 1065.9 |
| 20260509054933 | 14 | 135 | 3.2 | 0.0 | 0.00 | 0.00 | 0.00 | 67 | 1065.9 |
| 20260509054828 | 13 | 135 | 1.6 | 0.0 | 0.00 | 0.00 | 0.00 | 67 | 1065.9 |
| 20260509054706 | 14 | 135 | 9.7 | 0.0 | 0.00 | 0.00 | 0.00 | 67 | 1065.9 |
| 20260509054545 | 14 | 135 | 8.0 | 0.0 | 0.00 | 0.00 | 0.00 | 67 | 1065.9 |
| 20260509054417 | 13 | 135 | 4.8 | 0.0 | 0.00 | 0.00 | 0.00 | 67 | 1065.9 |
| 20260509054312 | 13 | 135 | 8.0 | 0.0 | 0.00 | 0.00 | 0.00 | 67 | 1066.0 |
| 20260509054207 | 13 | 135 | 8.0 | 0.0 | 0.00 | 0.00 | 0.00 | 68 | 1065.9 |
| 20260509054052 | 13 | 135 | 3.2 | 0.0 | 0.00 | 0.00 | 0.00 | 68 | 1065.9 |
| 20260509053924 | 13 | 135 | 6.4 | 0.0 | 0.00 | 0.00 | 0.00 | 68 | 1065.8 |
| 20260509053811 | 13 | 135 | 8.0 | 0.0 | 0.00 | 0.00 | 0.00 | 68 | 1065.9 |
| 20260509053705 | 13 | 135 | 9.7 | 0.0 | 0.00 | 0.00 | 0.00 | 69 | 1065.9 |
| 20260509053552 | 13 | 135 | 8.0 | 0.0 | 0.00 | 0.00 | 0.00 | 70 | 1065.8 |
| 20260509053439 | 13 | 135 | 0.0 | 0.0 | 0.00 | 0.00 | 0.00 | 70 | 1065.9 |
| 20260509053325 | 13 | 135 | 1.6 | 0.0 | 0.00 | 0.00 | 0.00 | 70 | 1065.8 |
| 20260509053212 | 13 | 135 | 3.2 | 0.0 | 0.00 | 0.00 | 0.00 | 70 | 1065.8 |
| 20260509053059 | 13 | 135 | 6.4 | 0.0 | 0.00 | 0.00 | 0.00 | 70 | 1065.8 |
| 20260509052947 | 13 | 135 | 6.4 | 0.0 | 0.00 | 0.00 | 0.00 | 70 | 1065.8 |
| 20260509052833 | 13 | 135 | 6.4 | 0.0 | 0.00 | 0.00 | 0.00 | 71 | 1065.8 |
| 20260509052727 | 12 | 135 | 3.2 | 0.0 | 0.00 | 0.00 | 0.00 | 71 | 1065.9 |
| 20260509052606 | 12 | 135 | 9.7 | 0.0 | 0.00 | 0.00 | 0.00 | 71 | 1065.8 |
| 20260509052447 | 12 | 135 | 0.0 | 0.0 | 0.00 | 0.00 | 0.00 | 72 | 1065.8 |
| 20260509052330 | 12 | 135 | 0.0 | 0.0 | 0.00 | 0.00 | 0.00 | 72 | 1065.8 |
| 20260509052211 | 12 | 135 | 8.0 | 0.0 | 0.00 | 0.00 | 0.00 | 72 | 1065.8 |
| 20260509052105 | 12 | 135 | 9.7 | 0.0 | 0.00 | 0.00 | 0.00 | 72 | 1065.7 |
| 20260509051954 | 12 | 135 | 6.4 | 0.0 | 0.00 | 0.00 | 0.00 | 72 | 1065.8 |
| 20260509051839 | 12 | 157 | 8.0 | 0.0 | 0.00 | 0.00 | 0.00 | 72 | 1065.8 |
| 20260509051734 | 12 | 135 | 8.0 | 0.0 | 0.00 | 0.00 | 0.00 | 73 | 1065.8 |
| 20260509051614 | 12 | 135 | 9.7 | 0.0 | 0.00 | 0.00 | 0.00 | 73 | 1065.8 |
| 20260509051459 | 12 | 135 | 8.0 | 0.0 | 0.00 | 0.00 | 0.00 | 73 | 1065.8 |
| 20260509051345 | 12 | 135 | 6.4 | 0.0 | 0.00 | 0.00 | 0.00 | 74 | 1065.7 |
| 20260509051224 | 12 | 135 | 4.8 | 0.0 | 0.00 | 0.00 | 0.00 | 74 | 1065.9 |
| 20260509051106 | 11 | 112 | 6.4 | 0.0 | 0.00 | 0.00 | 0.00 | 75 | 1065.8 |
| 20260509050957 | 11 | 135 | 3.2 | 0.0 | 0.00 | 0.00 | 0.00 | 75 | 1065.7 |
| 20260509050844 | 11 | 135 | 3.2 | 0.0 | 0.00 | 0.00 | 0.00 | 75 | 1065.7 |
| 20260509050724 | 11 | 135 | 4.8 | 0.0 | 0.00 | 0.00 | 0.00 | 76 | 1065.7 |
| 20260509050611 | 11 | 135 | 6.4 | 0.0 | 0.00 | 0.00 | 0.00 | 76 | 1065.7 |
| 20260509050506 | 11 | 112 | 4.8 | 0.0 | 0.00 | 0.00 | 0.00 | 76 | 1065.6 |
| 20260509050401 | 11 | 135 | 9.7 | 0.0 | 0.00 | 0.00 | 0.00 | 76 | 1065.6 |
| 20260509050255 | 11 | 135 | 4.8 | 0.0 | 0.00 | 0.00 | 0.00 | 76 | 1065.6 |
| 20260509050149 | 11 | 112 | 6.4 | 0.0 | 0.00 | 0.00 | 0.00 | 76 | 1065.6 |
| 20260509050034 | 11 | 135 | 9.7 | 0.0 | 0.00 | 0.00 | 0.00 | 77 | 1065.6 |
| 20260509045913 | 11 | 135 | 9.7 | 0.0 | 0.00 | 0.00 | 0.00 | 77 | 1065.6 |
| 20260509045806 | 11 | 135 | 9.7 | 0.0 | 0.00 | 0.00 | 0.00 | 77 | 1065.5 |
| 20260509045652 | 11 | 135 | 6.4 | 0.0 | 0.00 | 0.00 | 0.00 | 78 | 1065.6 |
| 20260509045546 | 11 | 135 | 6.4 | 0.0 | 0.00 | 0.00 | 0.00 | 78 | 1065.6 |
| 20260509045426 | 11 | 135 | 6.4 | 0.0 | 0.00 | 0.00 | 0.00 | 78 | 1065.6 |
| 20260509045320 | 11 | 135 | 4.8 | 0.0 | 0.00 | 0.00 | 0.00 | 79 | 1065.6 |
| 20260509045206 | 10 | 112 | 4.8 | 0.0 | 0.00 | 0.00 | 0.00 | 79 | 1065.6 |
| 20260509045052 | 10 | 112 | 6.4 | 0.0 | 0.00 | 0.00 | 0.00 | 79 | 1065.5 |
| 20260509044934 | 10 | 135 | 4.8 | 0.0 | 0.00 | 0.00 | 0.00 | 80 | 1065.6 |
| 20260509044819 | 10 | 135 | 4.8 | 0.0 | 0.00 | 0.00 | 0.00 | 80 | 1065.6 |
| 20260509044706 | 10 | 135 | 8.0 | 0.0 | 0.00 | 0.00 | 0.00 | 81 | 1065.6 |
| 20260509044600 | 10 | 135 | 4.8 | 0.0 | 0.00 | 0.00 | 0.00 | 81 | 1065.6 |
| 20260509044447 | 10 | 135 | 3.2 | 0.0 | 0.00 | 0.00 | 0.00 | 82 | 1065.6 |
| 20260509044342 | 10 | 135 | 3.2 | 0.0 | 0.00 | 0.00 | 0.00 | 82 | 1065.6 |
| 20260509044235 | 10 | 135 | 4.8 | 0.0 | 0.00 | 0.00 | 0.00 | 82 | 1065.6 |
| 20260509044114 | 9 | 135 | 4.8 | 0.0 | 0.00 | 0.00 | 0.00 | 83 | 1065.6 |
| 20260509044000 | 9 | 135 | 8.0 | 0.0 | 0.00 | 0.00 | 0.00 | 83 | 1065.5 |
| 20260509043845 | 9 | 135 | 8.0 | 0.0 | 0.00 | 0.00 | 0.00 | 84 | 1065.6 |
| 20260509043726 | 9 | 112 | 4.8 | 0.0 | 0.00 | 0.00 | 0.00 | 84 | 1065.6 |
| 20260509043618 | 8 | 135 | 1.6 | 0.0 | 0.00 | 0.00 | 0.00 | 84 | 1065.6 |
| 20260509043505 | 8 | 135 | 6.4 | 0.0 | 0.00 | 0.00 | 0.00 | 85 | 1065.6 |
| 20260509043359 | 8 | 112 | 6.4 | 0.0 | 0.00 | 0.00 | 0.00 | 85 | 1065.6 |
| 20260509043232 | 8 | 135 | 4.8 | 0.0 | 0.00 | 0.00 | 0.00 | 85 | 1065.6 |
| 20260509043127 | 8 | 135 | 6.4 | 0.0 | 0.00 | 0.00 | 0.00 | 86 | 1065.5 |
| 20260509043020 | 8 | 135 | 8.0 | 0.0 | 0.00 | 0.00 | 0.00 | 86 | 1065.6 |
| 20260509042859 | 8 | 135 | 4.8 | 0.0 | 0.00 | 0.00 | 0.00 | 86 | 1065.6 |
| 20260509042747 | 8 | 135 | 6.4 | 0.0 | 0.00 | 0.00 | 0.00 | 86 | 1065.5 |
| 20260509042641 | 8 | 135 | 9.7 | 0.0 | 0.00 | 0.00 | 0.00 | 86 | 1065.6 |
| 20260509042519 | 8 | 135 | 8.0 | 0.0 | 0.00 | 0.00 | 0.00 | 87 | 1065.5 |
| 20260509042351 | 8 | 135 | 6.4 | 0.0 | 0.00 | 0.00 | 0.00 | 87 | 1065.6 |
| 20260509042245 | 7 | 135 | 6.4 | 0.0 | 0.00 | 0.00 | 0.00 | 87 | 1065.5 |
| 20260509042132 | 7 | 135 | 3.2 | 0.0 | 0.00 | 0.00 | 0.00 | 87 | 1065.5 |
| 20260509042021 | 7 | 135 | 6.4 | 0.0 | 0.00 | 0.00 | 0.00 | 87 | 1065.5 |
| 20260509041914 | 7 | 135 | 8.0 | 0.0 | 0.00 | 0.00 | 0.00 | 87 | 1065.6 |
| 20260509041753 | 7 | 112 | 6.4 | 0.0 | 0.00 | 0.00 | 0.00 | 87 | 1065.5 |
| 20260509041640 | 7 | 135 | 6.4 | 0.0 | 0.00 | 0.00 | 0.00 | 88 | 1065.6 |
| 20260509041526 | 7 | 135 | 3.2 | 0.0 | 0.00 | 0.00 | 0.00 | 88 | 1065.6 |
| 20260509041412 | 7 | 135 | 1.6 | 0.0 | 0.00 | 0.00 | 0.00 | 88 | 1065.6 |
| 20260509041259 | 7 | 135 | 6.4 | 0.0 | 0.00 | 0.00 | 0.00 | 88 | 1065.6 |
| 20260509041147 | 7 | 135 | 3.2 | 0.0 | 0.00 | 0.00 | 0.00 | 88 | 1065.7 |
| 20260509041034 | 7 | 135 | 6.4 | 0.0 | 0.00 | 0.00 | 0.00 | 88 | 1065.6 |
| 20260509040920 | 7 | 135 | 4.8 | 0.0 | 0.00 | 0.00 | 0.00 | 88 | 1065.7 |
| 20260509040759 | 7 | 135 | 4.8 | 0.0 | 0.00 | 0.00 | 0.00 | 88 | 1065.7 |
| 20260509040646 | 7 | 135 | 4.8 | 0.0 | 0.00 | 0.00 | 0.00 | 88 | 1065.7 |
| 20260509040525 | 7 | 135 | 4.8 | 0.0 | 0.00 | 0.00 | 0.00 | 88 | 1065.7 |
| 20260509040404 | 7 | 135 | 0.0 | 0.0 | 0.00 | 0.00 | 0.00 | 87 | 1065.7 |
| 20260509040251 | 7 | 135 | 3.2 | 0.0 | 0.00 | 0.00 | 0.00 | 87 | 1065.7 |
| 20260509040137 | 7 | 157 | 3.2 | 0.0 | 0.00 | 0.00 | 0.00 | 87 | 1065.7 |
| 20260509040024 | 7 | 135 | 0.0 | 0.0 | 0.00 | 0.00 | 0.00 | 87 | 1065.7 |
| 20260509035905 | 7 | 157 | 0.0 | 0.0 | 0.00 | 0.00 | 0.00 | 87 | 1065.7 |
| 20260509035749 | 7 | 157 | 3.2 | 0.0 | 0.00 | 0.00 | 0.00 | 87 | 1065.7 |
| 20260509035636 | 7 | 135 | 0.0 | 0.0 | 0.00 | 0.00 | 0.00 | 87 | 1065.7 |
| 20260509035517 | 7 | 135 | 0.0 | 0.0 | 0.00 | 0.00 | 0.00 | 87 | 1065.8 |
| 20260509035412 | 7 | 135 | 0.0 | 0.0 | 0.00 | 0.00 | 0.00 | 87 | 1065.7 |
| 20260509035257 | 7 | 135 | 0.0 | 0.0 | 0.00 | 0.00 | 0.00 | 87 | 1065.8 |
| 20260509035145 | 7 | 135 | 0.0 | 0.0 | 0.00 | 0.00 | 0.00 | 87 | 1065.8 |
| 20260509035039 | 7 | 135 | 0.0 | 0.0 | 0.00 | 0.00 | 0.00 | 87 | 1065.7 |
| 20260509034934 | 7 | 135 | 0.0 | 0.0 | 0.00 | 0.00 | 0.00 | 87 | 1065.8 |
| 20260509034827 | 7 | 135 | 6.4 | 0.0 | 0.00 | 0.00 | 0.00 | 87 | 1065.8 |
| 20260509034713 | 7 | 135 | 0.0 | 0.0 | 0.00 | 0.00 | 0.00 | 87 | 1065.8 |
| 20260509034601 | 7 | 135 | 0.0 | 0.0 | 0.00 | 0.00 | 0.00 | 87 | 1065.7 |
| 20260509034448 | 7 | 135 | 0.0 | 0.0 | 0.00 | 0.00 | 0.00 | 87 | 1065.8 |
| 20260509034342 | 7 | 135 | 0.0 | 0.0 | 0.00 | 0.00 | 0.00 | 87 | 1065.7 |
| 20260509034221 | 6 | 135 | 0.0 | 0.0 | 0.00 | 0.00 | 0.00 | 86 | 1065.7 |
| 20260509034108 | 7 | 135 | 0.0 | 0.0 | 0.00 | 0.00 | 0.00 | 86 | 1065.7 |
| 20260509033947 | 7 | 135 | 3.2 | 0.0 | 0.00 | 0.00 | 0.00 | 86 | 1065.8 |
| 20260509033842 | 6 | 135 | 0.0 | 0.0 | 0.00 | 0.00 | 0.00 | 86 | 1065.7 |
| 20260509033720 | 7 | 135 | 0.0 | 0.0 | 0.00 | 0.00 | 0.00 | 86 | 1065.7 |
| 20260509033600 | 7 | 135 | 0.0 | 0.0 | 0.00 | 0.00 | 0.00 | 86 | 1065.7 |
| 20260509033454 | 7 | 135 | 0.0 | 0.0 | 0.00 | 0.00 | 0.00 | 86 | 1065.7 |
| 20260509033349 | 7 | 135 | 0.0 | 0.0 | 0.00 | 0.00 | 0.00 | 86 | 1065.7 |
| 20260509033238 | 7 | 135 | 0.0 | 0.0 | 0.00 | 0.00 | 0.00 | 86 | 1065.7 |
| 20260509033130 | 7 | 135 | 0.0 | 0.0 | 0.00 | 0.00 | 0.00 | 86 | 1065.7 |
| 20260509033010 | 7 | 135 | 0.0 | 0.0 | 0.00 | 0.00 | 0.00 | 86 | 1065.7 |
| 20260509032905 | 7 | 135 | 0.0 | 0.0 | 0.00 | 0.00 | 0.00 | 86 | 1065.7 |
| 20260509032752 | 7 | 135 | 0.0 | 0.0 | 0.00 | 0.00 | 0.00 | 86 | 1065.7 |
| 20260509032630 | 7 | 135 | 0.0 | 0.0 | 0.00 | 0.00 | 0.00 | 86 | 1065.7 |
| 20260509032509 | 7 | 135 | 4.8 | 0.0 | 0.00 | 0.00 | 0.00 | 86 | 1065.7 |
| 20260509032348 | 7 | 135 | 0.0 | 0.0 | 0.00 | 0.00 | 0.00 | 86 | 1065.7 |
| 20260509032243 | 7 | 135 | 1.6 | 0.0 | 0.00 | 0.00 | 0.00 | 86 | 1065.6 |
| 20260509032138 | 7 | 135 | 0.0 | 0.0 | 0.00 | 0.00 | 0.00 | 85 | 1065.7 |
| 20260509032016 | 7 | 135 | 0.0 | 0.0 | 0.00 | 0.00 | 0.00 | 85 | 1065.6 |
| 20260509031903 | 7 | 135 | 3.2 | 0.0 | 0.00 | 0.00 | 0.00 | 85 | 1065.6 |
| 20260509031751 | 7 | 135 | 0.0 | 0.0 | 0.00 | 0.00 | 0.00 | 85 | 1065.7 |
| 20260509031645 | 7 | 135 | 3.2 | 0.0 | 0.00 | 0.00 | 0.00 | 85 | 1065.7 |
| 20260509031532 | 7 | 135 | 6.4 | 0.0 | 0.00 | 0.00 | 0.00 | 85 | 1065.6 |
| 20260509031419 | 7 | 135 | 0.0 | 0.0 | 0.00 | 0.00 | 0.00 | 85 | 1065.7 |
| 20260509031315 | 7 | 135 | 0.0 | 0.0 | 0.00 | 0.00 | 0.00 | 85 | 1065.6 |
| 20260509031210 | 7 | 135 | 3.2 | 0.0 | 0.00 | 0.00 | 0.00 | 85 | 1065.7 |
| 20260509031104 | 7 | 135 | 1.6 | 0.0 | 0.00 | 0.00 | 0.00 | 86 | 1065.7 |
| 20260509030951 | 7 | 135 | 0.0 | 0.0 | 0.00 | 0.00 | 0.00 | 86 | 1065.7 |
| 20260509030846 | 7 | 135 | 0.0 | 0.0 | 0.00 | 0.00 | 0.00 | 86 | 1065.7 |
| 20260509030725 | 7 | 135 | 1.6 | 0.0 | 0.00 | 0.00 | 0.00 | 86 | 1065.7 |
| 20260509030612 | 7 | 135 | 6.4 | 0.0 | 0.00 | 0.00 | 0.00 | 86 | 1065.7 |
| 20260509030507 | 7 | 157 | 3.2 | 0.0 | 0.00 | 0.00 | 0.00 | 86 | 1065.7 |
| 20260509030402 | 7 | 157 | 4.8 | 0.0 | 0.00 | 0.00 | 0.00 | 86 | 1065.6 |
| 20260509030256 | 7 | 157 | 0.0 | 0.0 | 0.00 | 0.00 | 0.00 | 86 | 1065.7 |
| 20260509030145 | 7 | 157 | 0.0 | 0.0 | 0.00 | 0.00 | 0.00 | 86 | 1065.7 |
| 20260509030032 | 7 | 157 | 6.4 | 0.0 | 0.00 | 0.00 | 0.00 | 86 | 1065.7 |
| 20260509025917 | 7 | 157 | 4.8 | 0.0 | 0.00 | 0.00 | 0.00 | 86 | 1065.7 |
| 20260509025805 | 7 | 157 | 6.4 | 0.0 | 0.00 | 0.00 | 0.00 | 86 | 1065.7 |
| 20260509025700 | 7 | 157 | 6.4 | 0.0 | 0.00 | 0.00 | 0.00 | 86 | 1065.7 |
| 20260509025554 | 7 | 157 | 6.4 | 0.0 | 0.00 | 0.00 | 0.00 | 86 | 1065.8 |
| 20260509025449 | 7 | 135 | 6.4 | 0.0 | 0.00 | 0.00 | 0.00 | 86 | 1065.7 |
| 20260509025328 | 7 | 135 | 8.0 | 0.0 | 0.00 | 0.00 | 0.00 | 86 | 1065.7 |
| 20260509025215 | 7 | 135 | 6.4 | 0.0 | 0.00 | 0.00 | 0.00 | 86 | 1065.8 |
| 20260509025102 | 8 | 135 | 8.0 | 0.0 | 0.00 | 0.00 | 0.00 | 86 | 1065.7 |
| 20260509024948 | 7 | 157 | 8.0 | 0.0 | 0.00 | 0.00 | 0.00 | 86 | 1065.8 |
| 20260509024820 | 7 | 135 | 6.4 | 0.0 | 0.00 | 0.00 | 0.00 | 86 | 1065.8 |
| 20260509024714 | 7 | 157 | 6.4 | 0.0 | 0.00 | 0.00 | 0.00 | 86 | 1065.9 |
| 20260509024609 | 7 | 157 | 8.0 | 0.0 | 0.00 | 0.00 | 0.00 | 86 | 1065.9 |
| 20260509024504 | 7 | 135 | 4.8 | 0.0 | 0.00 | 0.00 | 0.00 | 86 | 1065.8 |
| 20260509024351 | 7 | 157 | 0.0 | 0.0 | 0.00 | 0.00 | 0.00 | 86 | 1065.9 |
| 20260509024232 | 7 | 157 | 3.2 | 0.0 | 0.00 | 0.00 | 0.00 | 86 | 1065.9 |
| 20260509024125 | 7 | 157 | 3.2 | 0.0 | 0.00 | 0.00 | 0.00 | 86 | 1066.0 |
| 20260509024012 | 8 | 157 | 8.0 | 0.0 | 0.00 | 0.00 | 0.00 | 85 | 1065.9 |
| 20260509023906 | 8 | 157 | 6.4 | 0.0 | 0.00 | 0.00 | 0.00 | 86 | 1065.9 |
| 20260509023747 | 8 | 157 | 6.4 | 0.0 | 0.00 | 0.00 | 0.00 | 85 | 1065.9 |
| 20260509023634 | 8 | 157 | 3.2 | 0.0 | 0.00 | 0.00 | 0.00 | 86 | 1065.8 |
| 20260509023526 | 8 | 135 | 4.8 | 0.0 | 0.00 | 0.00 | 0.00 | 86 | 1065.9 |
| 20260509023416 | 8 | 157 | 1.6 | 0.0 | 0.00 | 0.00 | 0.00 | 86 | 1065.8 |
| 20260509023309 | 8 | 135 | 3.2 | 0.0 | 0.00 | 0.00 | 0.00 | 86 | 1065.8 |
| 20260509023155 | 8 | 135 | 3.2 | 0.0 | 0.00 | 0.00 | 0.00 | 86 | 1065.9 |
| 20260509023027 | 8 | 135 | 3.2 | 0.0 | 0.00 | 0.00 | 0.00 | 85 | 1065.9 |
| 20260509022922 | 8 | 157 | 3.2 | 0.0 | 0.00 | 0.00 | 0.00 | 85 | 1065.8 |
| 20260509022816 | 8 | 135 | 8.0 | 0.0 | 0.00 | 0.00 | 0.00 | 85 | 1065.9 |
| 20260509022647 | 8 | 135 | 6.4 | 0.0 | 0.00 | 0.00 | 0.00 | 86 | 1065.8 |
| 20260509022534 | 8 | 135 | 3.2 | 0.0 | 0.00 | 0.00 | 0.00 | 86 | 1065.9 |
| 20260509022421 | 8 | 135 | 4.8 | 0.0 | 0.00 | 0.00 | 0.00 | 86 | 1065.8 |
| 20260509022308 | 8 | 157 | 6.4 | 0.0 | 0.00 | 0.00 | 0.00 | 86 | 1065.8 |
| 20260509022146 | 8 | 135 | 4.8 | 0.0 | 0.00 | 0.00 | 0.00 | 86 | 1065.8 |
| 20260509022033 | 8 | 135 | 6.4 | 0.0 | 0.00 | 0.00 | 0.00 | 86 | 1065.8 |
| 20260509021912 | 8 | 135 | 3.2 | 0.0 | 0.00 | 0.00 | 0.00 | 86 | 1065.8 |
| 20260509021759 | 8 | 157 | 8.0 | 0.0 | 0.00 | 0.00 | 0.00 | 86 | 1065.9 |
| 20260509021638 | 8 | 135 | 4.8 | 0.0 | 0.00 | 0.00 | 0.00 | 86 | 1065.9 |
| 20260509021527 | 8 | 135 | 9.7 | 0.0 | 0.00 | 0.00 | 0.00 | 86 | 1065.8 |
| 20260509021419 | 8 | 157 | 9.7 | 0.0 | 0.00 | 0.00 | 0.00 | 86 | 1065.8 |
| 20260509021306 | 7 | 157 | 6.4 | 0.0 | 0.00 | 0.00 | 0.00 | 86 | 1065.8 |
| 20260509021145 | 7 | 135 | 8.0 | 0.0 | 0.00 | 0.00 | 0.00 | 86 | 1065.8 |
| 20260509021035 | 7 | 157 | 3.2 | 0.0 | 0.00 | 0.00 | 0.00 | 86 | 1065.8 |
| 20260509020927 | 8 | 135 | 1.6 | 0.0 | 0.00 | 0.00 | 0.00 | 86 | 1065.8 |
| 20260509020814 | 7 | 157 | 3.2 | 0.0 | 0.00 | 0.00 | 0.00 | 86 | 1065.9 |
| 20260509020701 | 7 | 157 | 6.4 | 0.0 | 0.00 | 0.00 | 0.00 | 86 | 1065.8 |
| 20260509020556 | 7 | 135 | 3.2 | 0.0 | 0.00 | 0.00 | 0.00 | 86 | 1065.8 |
| 20260509020445 | 7 | 135 | 1.6 | 0.0 | 0.00 | 0.00 | 0.00 | 86 | 1065.8 |
| 20260509020338 | 7 | 135 | 8.0 | 0.0 | 0.00 | 0.00 | 0.00 | 86 | 1065.9 |
| 20260509020224 | 8 | 135 | 3.2 | 0.0 | 0.00 | 0.00 | 0.00 | 86 | 1065.9 |
| 20260509020112 | 8 | 135 | 0.0 | 0.0 | 0.00 | 0.00 | 0.00 | 86 | 1065.9 |
| 20260509015952 | 8 | 112 | 0.0 | 0.0 | 0.00 | 0.00 | 0.00 | 86 | 1065.9 |
| 20260509015846 | 7 | 135 | 0.0 | 0.0 | 0.00 | 0.00 | 0.00 | 86 | 1065.9 |
| 20260509015734 | 7 | 135 | 0.0 | 0.0 | 0.00 | 0.00 | 0.00 | 86 | 1065.9 |
| 20260509015627 | 7 | 135 | 6.4 | 0.0 | 0.00 | 0.00 | 0.00 | 86 | 1065.9 |
| 20260509015514 | 7 | 135 | 1.6 | 0.0 | 0.00 | 0.00 | 0.00 | 86 | 1065.9 |
| 20260509015401 | 7 | 135 | 8.0 | 0.0 | 0.00 | 0.00 | 0.00 | 86 | 1065.9 |
| 20260509015256 | 7 | 135 | 3.2 | 0.0 | 0.00 | 0.00 | 0.00 | 86 | 1065.9 |
| 20260509015135 | 7 | 135 | 0.0 | 0.0 | 0.00 | 0.00 | 0.00 | 86 | 1065.9 |
| 20260509015022 | 7 | 135 | 0.0 | 0.0 | 0.00 | 0.00 | 0.00 | 86 | 1065.9 |
| 20260509014919 | 7 | 135 | 0.0 | 0.0 | 0.00 | 0.00 | 0.00 | 86 | 1065.9 |
| 20260509014812 | 7 | 157 | 6.4 | 0.0 | 0.00 | 0.00 | 0.00 | 86 | 1065.9 |
| 20260509014659 | 7 | 135 | 4.8 | 0.0 | 0.00 | 0.00 | 0.00 | 86 | 1065.9 |
| 20260509014546 | 7 | 135 | 4.8 | 0.0 | 0.00 | 0.00 | 0.00 | 86 | 1065.8 |
| 20260509014433 | 7 | 135 | 3.2 | 0.0 | 0.00 | 0.00 | 0.00 | 86 | 1065.9 |
| 20260509014327 | 7 | 135 | 0.0 | 0.0 | 0.00 | 0.00 | 0.00 | 86 | 1065.9 |
| 20260509014206 | 7 | 157 | 6.4 | 0.0 | 0.00 | 0.00 | 0.00 | 86 | 1065.9 |
| 20260509014053 | 7 | 135 | 6.4 | 0.0 | 0.00 | 0.00 | 0.00 | 86 | 1065.8 |
| 20260509013940 | 7 | 157 | 8.0 | 0.0 | 0.00 | 0.00 | 0.00 | 86 | 1065.8 |
| 20260509013827 | 7 | 135 | 6.4 | 0.0 | 0.00 | 0.00 | 0.00 | 86 | 1065.9 |
| 20260509013722 | 7 | 157 | 1.6 | 0.0 | 0.00 | 0.00 | 0.00 | 86 | 1065.9 |
| 20260509013617 | 7 | 157 | 4.8 | 0.0 | 0.00 | 0.00 | 0.00 | 86 | 1065.9 |
| 20260509013512 | 7 | 157 | 0.0 | 0.0 | 0.00 | 0.00 | 0.00 | 85 | 1065.8 |
| 20260509013406 | 7 | 135 | 4.8 | 0.0 | 0.00 | 0.00 | 0.00 | 85 | 1065.8 |
| 20260509013247 | 7 | 157 | 0.0 | 0.0 | 0.00 | 0.00 | 0.00 | 85 | 1065.8 |
| 20260509013132 | 7 | 157 | 0.0 | 0.0 | 0.00 | 0.00 | 0.00 | 85 | 1065.8 |
| 20260509013019 | 7 | 157 | 0.0 | 0.0 | 0.00 | 0.00 | 0.00 | 85 | 1065.8 |
| 20260509012915 | 7 | 157 | 0.0 | 0.0 | 0.00 | 0.00 | 0.00 | 85 | 1065.7 |
| 20260509012809 | 7 | 157 | 4.8 | 0.0 | 0.00 | 0.00 | 0.00 | 85 | 1065.6 |
| 20260509012648 | 7 | 157 | 0.0 | 0.0 | 0.00 | 0.00 | 0.00 | 85 | 1065.8 |
| 20260509012535 | 7 | 157 | 1.6 | 0.0 | 0.00 | 0.00 | 0.00 | 85 | 1065.8 |
| 20260509012422 | 7 | 135 | 0.0 | 0.0 | 0.00 | 0.00 | 0.00 | 85 | 1065.7 |
| 20260509012308 | 7 | 135 | 0.0 | 0.0 | 0.00 | 0.00 | 0.00 | 85 | 1065.7 |
| 20260509012155 | 7 | 135 | 0.0 | 0.0 | 0.00 | 0.00 | 0.00 | 85 | 1065.7 |
| 20260509012042 | 7 | 135 | 0.0 | 0.0 | 0.00 | 0.00 | 0.00 | 85 | 1065.7 |
| 20260509011929 | 7 | 135 | 0.0 | 0.0 | 0.00 | 0.00 | 0.00 | 85 | 1065.6 |
| 20260509011825 | 7 | 135 | 0.0 | 0.0 | 0.00 | 0.00 | 0.00 | 85 | 1065.7 |
| 20260509011720 | 7 | 135 | 3.2 | 0.0 | 0.00 | 0.00 | 0.00 | 85 | 1065.8 |
| 20260509011614 | 7 | 135 | 0.0 | 0.0 | 0.00 | 0.00 | 0.00 | 85 | 1065.6 |
| 20260509011510 | 7 | 135 | 4.8 | 0.0 | 0.00 | 0.00 | 0.00 | 85 | 1065.7 |
| 20260509011407 | 7 | 157 | 1.6 | 0.0 | 0.00 | 0.00 | 0.00 | 85 | 1065.7 |
| 20260509011259 | 7 | 157 | 0.0 | 0.0 | 0.00 | 0.00 | 0.00 | 85 | 1065.7 |
| 20260509011137 | 7 | 157 | 0.0 | 0.0 | 0.00 | 0.00 | 0.00 | 85 | 1065.8 |
| 20260509011017 | 7 | 157 | 0.0 | 0.0 | 0.00 | 0.00 | 0.00 | 85 | 1065.8 |
| 20260509010905 | 7 | 135 | 0.0 | 0.0 | 0.00 | 0.00 | 0.00 | 85 | 1065.8 |
| 20260509010801 | 7 | 135 | 0.0 | 0.0 | 0.00 | 0.00 | 0.00 | 85 | 1065.8 |
| 20260509010647 | 7 | 135 | 0.0 | 0.0 | 0.00 | 0.00 | 0.00 | 85 | 1065.8 |
| 20260509010533 | 7 | 135 | 0.0 | 0.0 | 0.00 | 0.00 | 0.00 | 85 | 1065.7 |
| 20260509010428 | 7 | 157 | 3.2 | 0.0 | 0.00 | 0.00 | 0.00 | 85 | 1065.8 |
| 20260509010314 | 7 | 157 | 4.8 | 0.0 | 0.00 | 0.00 | 0.00 | 85 | 1065.9 |
| 20260509005918 | 7 | 135 | 3.2 | 0.0 | 0.00 | 0.00 | 0.00 | 85 | 1065.9 |
| 20260509005801 | 7 | 157 | 8.0 | 0.0 | 0.00 | 0.00 | 0.00 | 85 | 1065.8 |
| 20260509005645 | 7 | 135 | 3.2 | 0.0 | 0.00 | 0.00 | 0.00 | 85 | 1065.8 |
| 20260509005539 | 7 | 135 | 8.0 | 0.0 | 0.00 | 0.00 | 0.00 | 85 | 1065.8 |
| 20260509005434 | 7 | 135 | 6.4 | 0.0 | 0.00 | 0.00 | 0.00 | 84 | 1065.8 |
| 20260509005306 | 7 | 135 | 6.4 | 0.0 | 0.00 | 0.00 | 0.00 | 84 | 1065.8 |
| 20260509005152 | 7 | 135 | 4.8 | 0.0 | 0.00 | 0.00 | 0.00 | 84 | 1065.8 |
| 20260509005047 | 7 | 135 | 6.4 | 0.0 | 0.00 | 0.00 | 0.00 | 84 | 1065.9 |
| 20260509004942 | 7 | 135 | 0.0 | 0.0 | 0.00 | 0.00 | 0.00 | 84 | 1065.7 |
| 20260509004837 | 7 | 135 | 0.0 | 0.0 | 0.00 | 0.00 | 0.00 | 84 | 1065.8 |
| 20260509004732 | 7 | 135 | 0.0 | 0.0 | 0.00 | 0.00 | 0.00 | 84 | 1065.7 |
| 20260509004627 | 7 | 135 | 0.0 | 0.0 | 0.00 | 0.00 | 0.00 | 84 | 1065.7 |
| 20260509004522 | 7 | 135 | 0.0 | 0.0 | 0.00 | 0.00 | 0.00 | 84 | 1065.8 |
| 20260509004416 | 7 | 135 | 0.0 | 0.0 | 0.00 | 0.00 | 0.00 | 84 | 1065.7 |
| 20260509004303 | 7 | 135 | 1.6 | 0.0 | 0.00 | 0.00 | 0.00 | 84 | 1065.6 |
| 20260509004151 | 7 | 135 | 0.0 | 0.0 | 0.00 | 0.00 | 0.00 | 84 | 1065.5 |
| 20260509004047 | 7 | 135 | 0.0 | 0.0 | 0.00 | 0.00 | 0.00 | 83 | 1065.6 |
| 20260509003939 | 7 | 135 | 0.0 | 0.0 | 0.00 | 0.00 | 0.00 | 83 | 1065.6 |
| 20260509003818 | 7 | 135 | 0.0 | 0.0 | 0.00 | 0.00 | 0.00 | 83 | 1065.5 |
| 20260509003713 | 7 | 135 | 0.0 | 0.0 | 0.00 | 0.00 | 0.00 | 83 | 1065.6 |
| 20260509003606 | 7 | 135 | 0.0 | 0.0 | 0.00 | 0.00 | 0.00 | 83 | 1065.6 |
| 20260509003500 | 7 | 135 | 1.6 | 0.0 | 0.00 | 0.00 | 0.00 | 83 | 1065.6 |
| 20260509003345 | 7 | 135 | 6.4 | 0.0 | 0.00 | 0.00 | 0.00 | 83 | 1065.6 |
| 20260509003225 | 7 | 135 | 0.0 | 0.0 | 0.00 | 0.00 | 0.00 | 83 | 1065.6 |
| 20260509003120 | 7 | 157 | 0.0 | 0.0 | 0.00 | 0.00 | 0.00 | 83 | 1065.5 |
| 20260509003015 | 7 | 157 | 0.0 | 0.0 | 0.00 | 0.00 | 0.00 | 83 | 1065.6 |
| 20260509002902 | 7 | 135 | 0.0 | 0.0 | 0.00 | 0.00 | 0.00 | 83 | 1065.6 |
| 20260509002756 | 7 | 135 | 0.0 | 0.0 | 0.00 | 0.00 | 0.00 | 83 | 1065.6 |
| 20260509002651 | 7 | 135 | 3.2 | 0.0 | 0.00 | 0.00 | 0.00 | 83 | 1065.6 |
| 20260509002545 | 7 | 135 | 0.0 | 0.0 | 0.00 | 0.00 | 0.00 | 83 | 1065.6 |
| 20260509002440 | 7 | 135 | 0.0 | 0.0 | 0.00 | 0.00 | 0.00 | 83 | 1065.5 |
| 20260509002319 | 7 | 135 | 0.0 | 0.0 | 0.00 | 0.00 | 0.00 | 83 | 1065.5 |
| 20260509002207 | 7 | 135 | 3.2 | 0.0 | 0.00 | 0.00 | 0.00 | 82 | 1065.5 |
| 20260509002102 | 7 | 135 | 0.0 | 0.0 | 0.00 | 0.00 | 0.00 | 82 | 1065.5 |
| 20260509001955 | 7 | 135 | 0.0 | 0.0 | 0.00 | 0.00 | 0.00 | 82 | 1065.5 |
| 20260509001850 | 7 | 135 | 0.0 | 0.0 | 0.00 | 0.00 | 0.00 | 82 | 1065.6 |
| 20260509001728 | 7 | 135 | 0.0 | 0.0 | 0.00 | 0.00 | 0.00 | 82 | 1065.5 |
| 20260509001608 | 7 | 135 | 0.0 | 0.0 | 0.00 | 0.00 | 0.00 | 82 | 1065.5 |
| 20260509001455 | 7 | 135 | 0.0 | 0.0 | 0.00 | 0.00 | 0.00 | 82 | 1065.5 |
| 20260509001349 | 7 | 135 | 0.0 | 0.0 | 0.00 | 0.00 | 0.00 | 82 | 1065.5 |
| 20260509001244 | 7 | 135 | 0.0 | 0.0 | 0.00 | 0.00 | 0.00 | 82 | 1065.5 |
| 20260509001124 | 7 | 135 | 0.0 | 0.0 | 0.00 | 0.00 | 0.00 | 82 | 1065.5 |
| 20260509001018 | 7 | 135 | 3.2 | 0.0 | 0.00 | 0.00 | 0.00 | 82 | 1065.4 |
| 20260509000856 | 7 | 112 | 4.8 | 0.0 | 0.00 | 0.00 | 0.00 | 82 | 1065.5 |
| 20260509000736 | 7 | 135 | 0.0 | 0.0 | 0.00 | 0.00 | 0.00 | 82 | 1065.5 |
| 20260509000630 | 7 | 135 | 0.0 | 0.0 | 0.00 | 0.00 | 0.00 | 82 | 1065.5 |
| 20260509000518 | 7 | 135 | 4.8 | 0.0 | 0.00 | 0.00 | 0.00 | 82 | 1065.5 |
| 20260509000403 | 7 | 135 | 1.6 | 0.0 | 0.00 | 0.00 | 0.00 | 82 | 1065.5 |
| 20260509000243 | 7 | 135 | 4.8 | 0.0 | 0.00 | 0.00 | 0.00 | 82 | 1065.5 |
| 20260509000130 | 7 | 135 | 3.2 | 0.0 | 0.00 | 0.00 | 0.00 | 82 | 1065.5 |
| 20260509000017 | 7 | 135 | 3.2 | 0.0 | 0.00 | 0.00 | 0.00 | 82 | 1065.5 |
| 20260508235912 | 7 | 135 | 4.8 | 0.0 | 0.00 | 0.00 | 0.00 | 82 | 1065.4 |
| 20260508235807 | 7 | 112 | 6.4 | 0.0 | 0.00 | 0.00 | 0.00 | 82 | 1065.5 |
| 20260508235702 | 7 | 135 | 9.7 | 0.0 | 0.00 | 0.00 | 0.00 | 82 | 1065.5 |
| 20260508235550 | 7 | 135 | 3.2 | 0.0 | 0.00 | 0.00 | 0.00 | 82 | 1065.5 |
| 20260508235443 | 7 | 135 | 4.8 | 0.0 | 0.00 | 0.00 | 0.00 | 82 | 1065.5 |
| 20260508235330 | 7 | 135 | 4.8 | 0.0 | 0.00 | 0.00 | 0.00 | 82 | 1065.5 |
| 20260508235154 | 7 | 135 | 8.0 | 0.0 | 0.00 | 0.00 | 0.00 | 82 | 1065.5 |
| 20260508235040 | 7 | 135 | 8.0 | 0.0 | 0.00 | 0.00 | 0.00 | 82 | 1065.5 |
| 20260508234927 | 7 | 135 | 6.4 | 0.0 | 0.00 | 0.00 | 0.00 | 82 | 1065.5 |
| 20260508234821 | 7 | 112 | 1.6 | 0.0 | 0.00 | 0.00 | 0.00 | 82 | 1065.5 |
| 20260508234652 | 7 | 112 | 8.0 | 0.0 | 0.00 | 0.00 | 0.00 | 82 | 1065.5 |
| 20260508234540 | 7 | 112 | 0.0 | 0.0 | 0.00 | 0.00 | 0.00 | 82 | 1065.6 |
| 20260508234419 | 7 | 112 | 3.2 | 0.0 | 0.00 | 0.00 | 0.00 | 82 | 1065.5 |
| 20260508234305 | 7 | 112 | 6.4 | 0.0 | 0.00 | 0.00 | 0.00 | 82 | 1065.7 |
| 20260508234152 | 7 | 135 | 1.6 | 0.0 | 0.00 | 0.00 | 0.00 | 82 | 1065.6 |
| 20260508234047 | 7 | 135 | 3.2 | 0.0 | 0.00 | 0.00 | 0.00 | 82 | 1065.6 |
| 20260508233942 | 7 | 112 | 6.4 | 0.0 | 0.00 | 0.00 | 0.00 | 82 | 1065.5 |
| 20260508233836 | 7 | 135 | 6.4 | 0.0 | 0.00 | 0.00 | 0.00 | 81 | 1065.5 |
| 20260508233707 | 7 | 135 | 8.0 | 0.0 | 0.00 | 0.00 | 0.00 | 81 | 1065.6 |
| 20260508233546 | 7 | 135 | 6.4 | 0.0 | 0.00 | 0.00 | 0.00 | 81 | 1065.5 |
| 20260508233426 | 7 | 112 | 0.0 | 0.0 | 0.00 | 0.00 | 0.00 | 81 | 1065.5 |
| 20260508233320 | 7 | 112 | 4.8 | 0.0 | 0.00 | 0.00 | 0.00 | 81 | 1065.5 |
| 20260508233207 | 7 | 112 | 4.8 | 0.0 | 0.00 | 0.00 | 0.00 | 80 | 1065.6 |
| 20260508233055 | 8 | 90 | 0.0 | 0.0 | 0.00 | 0.00 | 0.00 | 80 | 1065.6 |
| 20260508232932 | 8 | 90 | 0.0 | 0.0 | 0.00 | 0.00 | 0.00 | 80 | 1065.6 |
| 20260508232820 | 8 | 90 | 1.6 | 0.0 | 0.00 | 0.00 | 0.00 | 80 | 1065.6 |
| 20260508232658 | 8 | 112 | 0.0 | 0.0 | 0.00 | 0.00 | 0.00 | 80 | 1065.6 |
| 20260508232535 | 8 | 112 | 0.0 | 0.0 | 0.00 | 0.00 | 0.00 | 80 | 1065.6 |
| 20260508232417 | 8 | 112 | 0.0 | 0.0 | 0.00 | 0.00 | 0.00 | 79 | 1065.6 |
| 20260508232312 | 8 | 67 | 0.0 | 0.0 | 0.00 | 0.00 | 0.00 | 79 | 1065.6 |
| 20260508232157 | 8 | 67 | 0.0 | 0.0 | 0.00 | 0.00 | 0.00 | 80 | 1065.7 |
| 20260508232037 | 8 | 67 | 0.0 | 0.0 | 0.00 | 0.00 | 0.00 | 80 | 1065.7 |
| 20260508231933 | 8 | 67 | 0.0 | 0.0 | 0.00 | 0.00 | 0.00 | 80 | 1065.8 |
| 20260508231827 | 8 | 112 | 0.0 | 0.0 | 0.00 | 0.00 | 0.00 | 80 | 1065.7 |
| 20260508231723 | 8 | 112 | 0.0 | 0.0 | 0.00 | 0.00 | 0.00 | 80 | 1065.7 |
| 20260508231618 | 8 | 112 | 0.0 | 0.0 | 0.00 | 0.00 | 0.00 | 80 | 1065.7 |
| 20260508231504 | 8 | 112 | 3.2 | 0.0 | 0.00 | 0.00 | 0.00 | 79 | 1065.7 |
| 20260508231350 | 8 | 67 | 6.4 | 0.0 | 0.00 | 0.00 | 0.00 | 79 | 1065.6 |
| 20260508231237 | 8 | 90 | 6.4 | 0.0 | 0.00 | 0.00 | 0.00 | 79 | 1065.6 |
| 20260508231115 | 8 | 112 | 4.8 | 0.0 | 0.00 | 0.00 | 0.00 | 79 | 1065.6 |
| 20260508230955 | 8 | 112 | 3.2 | 0.0 | 0.00 | 0.00 | 0.00 | 79 | 1065.6 |
| 20260508230849 | 8 | 135 | 6.4 | 0.0 | 0.00 | 0.00 | 0.00 | 79 | 1065.6 |
| 20260508230729 | 8 | 112 | 3.2 | 0.0 | 0.00 | 0.00 | 0.00 | 79 | 1065.6 |
| 20260508230617 | 8 | 135 | 8.0 | 0.0 | 0.00 | 0.00 | 0.00 | 79 | 1065.6 |
| 20260508230502 | 8 | 135 | 4.8 | 0.0 | 0.00 | 0.00 | 0.00 | 79 | 1065.6 |
| 20260508230349 | 8 | 135 | 6.4 | 0.0 | 0.00 | 0.00 | 0.00 | 79 | 1065.6 |
| 20260508230230 | 8 | 135 | 6.4 | 0.0 | 0.00 | 0.00 | 0.00 | 79 | 1065.6 |
| 20260508230126 | 8 | 135 | 1.6 | 0.0 | 0.00 | 0.00 | 0.00 | 79 | 1065.6 |
| 20260508230017 | 8 | 135 | 4.8 | 0.0 | 0.00 | 0.00 | 0.00 | 79 | 1065.5 |
| 20260508225904 | 8 | 135 | 6.4 | 0.0 | 0.00 | 0.00 | 0.00 | 79 | 1065.5 |
| 20260508225754 | 8 | 135 | 8.0 | 0.0 | 0.00 | 0.00 | 0.00 | 80 | 1065.6 |
| 20260508225639 | 8 | 135 | 9.7 | 0.0 | 0.00 | 0.00 | 0.00 | 80 | 1065.5 |
| 20260508225534 | 8 | 135 | 3.2 | 0.0 | 0.00 | 0.00 | 0.00 | 80 | 1065.5 |
| 20260508225431 | 8 | 135 | 3.2 | 0.0 | 0.00 | 0.00 | 0.00 | 80 | 1065.6 |
| 20260508225325 | 8 | 135 | 3.2 | 0.0 | 0.00 | 0.00 | 0.00 | 80 | 1065.5 |
| 20260508225218 | 8 | 135 | 4.8 | 0.0 | 0.00 | 0.00 | 0.00 | 81 | 1065.6 |
| 20260508225057 | 8 | 112 | 3.2 | 0.0 | 0.00 | 0.00 | 0.00 | 81 | 1065.5 |
| 20260508224935 | 8 | 135 | 6.4 | 0.0 | 0.00 | 0.00 | 0.00 | 81 | 1065.5 |
| 20260508224814 | 8 | 112 | 8.0 | 0.0 | 0.00 | 0.00 | 0.00 | 81 | 1065.5 |
| 20260508224702 | 8 | 112 | 4.8 | 0.0 | 0.00 | 0.00 | 0.00 | 81 | 1065.5 |
| 20260508224557 | 8 | 135 | 8.0 | 0.0 | 0.00 | 0.00 | 0.00 | 81 | 1065.5 |
| 20260508224443 | 8 | 135 | 6.4 | 0.0 | 0.00 | 0.00 | 0.00 | 81 | 1065.5 |
| 20260508224322 | 8 | 135 | 8.0 | 0.0 | 0.00 | 0.00 | 0.00 | 81 | 1065.6 |
| 20260508224217 | 8 | 135 | 0.0 | 0.0 | 0.00 | 0.00 | 0.00 | 81 | 1065.5 |
| 20260508224058 | 8 | 135 | 0.0 | 0.0 | 0.00 | 0.00 | 0.00 | 81 | 1065.5 |
| 20260508223951 | 8 | 135 | 4.8 | 0.0 | 0.00 | 0.00 | 0.00 | 81 | 1065.6 |
| 20260508223837 | 8 | 135 | 3.2 | 0.0 | 0.00 | 0.00 | 0.00 | 81 | 1065.6 |
| 20260508223726 | 8 | 135 | 6.4 | 0.0 | 0.00 | 0.00 | 0.00 | 81 | 1065.6 |
| 20260508223619 | 8 | 157 | 4.8 | 0.0 | 0.00 | 0.00 | 0.00 | 80 | 1065.6 |
| 20260508223458 | 8 | 135 | 0.0 | 0.0 | 0.00 | 0.00 | 0.00 | 80 | 1065.6 |
| 20260508223329 | 8 | 135 | 0.0 | 0.0 | 0.00 | 0.00 | 0.00 | 80 | 1065.6 |
| 20260508223216 | 8 | 112 | 0.0 | 0.0 | 0.00 | 0.00 | 0.00 | 80 | 1065.6 |
| 20260508223054 | 8 | 112 | 0.0 | 0.0 | 0.00 | 0.00 | 0.00 | 80 | 1065.6 |
| 20260508222925 | 8 | 112 | 0.0 | 0.0 | 0.00 | 0.00 | 0.00 | 80 | 1065.6 |
| 20260508222812 | 8 | 112 | 0.0 | 0.0 | 0.00 | 0.00 | 0.00 | 80 | 1065.6 |
| 20260508222650 | 8 | 112 | 0.0 | 0.0 | 0.00 | 0.00 | 0.00 | 80 | 1065.6 |
| 20260508222529 | 8 | 112 | 0.0 | 0.0 | 0.00 | 0.00 | 0.00 | 80 | 1065.6 |
| 20260508222408 | 8 | 112 | 0.0 | 0.0 | 0.00 | 0.00 | 0.00 | 80 | 1065.6 |
| 20260508222258 | 8 | 112 | 0.0 | 0.0 | 0.00 | 0.00 | 0.00 | 79 | 1065.6 |
| 20260508222149 | 8 | 112 | 0.0 | 0.0 | 0.00 | 0.00 | 0.00 | 79 | 1065.6 |
| 20260508222031 | 8 | 90 | 0.0 | 0.0 | 0.00 | 0.00 | 0.00 | 79 | 1065.6 |
| 20260508221924 | 8 | 90 | 0.0 | 0.0 | 0.00 | 0.00 | 0.00 | 79 | 1065.6 |
| 20260508221810 | 8 | 90 | 0.0 | 0.0 | 0.00 | 0.00 | 0.00 | 79 | 1065.7 |
| 20260508221649 | 8 | 90 | 0.0 | 0.0 | 0.00 | 0.00 | 0.00 | 79 | 1065.7 |
| 20260508221521 | 8 | 90 | 0.0 | 0.0 | 0.00 | 0.00 | 0.00 | 79 | 1065.7 |
| 20260508221415 | 8 | 90 | 0.0 | 0.0 | 0.00 | 0.00 | 0.00 | 79 | 1065.6 |
| 20260508221302 | 8 | 90 | 3.2 | 0.0 | 0.00 | 0.00 | 0.00 | 79 | 1065.6 |
| 20260508221140 | 8 | 90 | 6.4 | 0.0 | 0.00 | 0.00 | 0.00 | 79 | 1065.6 |
| 20260508221019 | 8 | 90 | 4.8 | 0.0 | 0.00 | 0.00 | 0.00 | 79 | 1065.6 |
| 20260508220850 | 9 | 90 | 0.0 | 0.0 | 0.00 | 0.00 | 0.00 | 78 | 1065.6 |
| 20260508220738 | 9 | 112 | 0.0 | 0.0 | 0.00 | 0.00 | 0.00 | 78 | 1065.5 |
| 20260508220633 | 9 | 90 | 0.0 | 0.0 | 0.00 | 0.00 | 0.00 | 78 | 1065.6 |
| 20260508220527 | 9 | 90 | 0.0 | 0.0 | 0.00 | 0.00 | 0.00 | 78 | 1065.6 |
| 20260508220405 | 9 | 90 | 0.0 | 0.0 | 0.00 | 0.00 | 0.00 | 77 | 1065.6 |
| 20260508220251 | 9 | 90 | 0.0 | 0.0 | 0.00 | 0.00 | 0.00 | 77 | 1065.6 |
| 20260508220130 | 9 | 90 | 0.0 | 0.0 | 0.00 | 0.00 | 0.00 | 77 | 1065.6 |
| 20260508220022 | 9 | 112 | 3.2 | 0.0 | 0.00 | 0.00 | 0.00 | 77 | 1065.6 |
| 20260508215900 | 9 | 90 | 6.4 | 0.0 | 0.00 | 0.00 | 0.00 | 77 | 1065.6 |
| 20260508215746 | 9 | 90 | 6.4 | 0.0 | 0.00 | 0.00 | 0.00 | 77 | 1065.6 |
| 20260508215641 | 9 | 67 | 0.0 | 0.0 | 0.00 | 0.00 | 0.00 | 77 | 1065.6 |
| 20260508215535 | 9 | 90 | 0.0 | 0.0 | 0.00 | 0.00 | 0.00 | 77 | 1065.6 |
| 20260508215419 | 9 | 90 | 3.2 | 0.0 | 0.00 | 0.00 | 0.00 | 77 | 1065.6 |
| 20260508215259 | 9 | 67 | 4.8 | 0.0 | 0.00 | 0.00 | 0.00 | 77 | 1065.6 |
| 20260508215150 | 9 | 90 | 4.8 | 0.0 | 0.00 | 0.00 | 0.00 | 77 | 1065.6 |
| 20260508215029 | 9 | 90 | 6.4 | 0.0 | 0.00 | 0.00 | 0.00 | 76 | 1065.6 |
| 20260508214917 | 9 | 90 | 6.4 | 0.0 | 0.00 | 0.00 | 0.00 | 76 | 1065.6 |
| 20260508214808 | 9 | 112 | 6.4 | 0.0 | 0.00 | 0.00 | 0.00 | 76 | 1065.6 |
| 20260508214656 | 9 | 90 | 4.8 | 0.0 | 0.00 | 0.00 | 0.00 | 76 | 1065.5 |
| 20260508214548 | 9 | 112 | 8.0 | 0.0 | 0.00 | 0.00 | 0.00 | 76 | 1065.6 |
| 20260508214435 | 9 | 90 | 4.8 | 0.0 | 0.00 | 0.00 | 0.00 | 76 | 1065.6 |
| 20260508214329 | 9 | 112 | 4.8 | 0.0 | 0.00 | 0.00 | 0.00 | 76 | 1065.5 |
| 20260508214210 | 9 | 90 | 0.0 | 0.0 | 0.00 | 0.00 | 0.00 | 76 | 1065.6 |
| 20260508214055 | 9 | 90 | 0.0 | 0.0 | 0.00 | 0.00 | 0.00 | 76 | 1065.6 |
| 20260508213942 | 9 | 90 | 9.7 | 0.0 | 0.00 | 0.00 | 0.00 | 76 | 1065.6 |
| 20260508213837 | 9 | 90 | 8.0 | 0.0 | 0.00 | 0.00 | 0.00 | 76 | 1065.6 |
| 20260508213724 | 9 | 90 | 6.4 | 0.0 | 0.00 | 0.00 | 0.00 | 76 | 1065.6 |
| 20260508213610 | 9 | 112 | 9.7 | 0.0 | 0.00 | 0.00 | 0.00 | 76 | 1065.6 |
| 20260508213448 | 9 | 112 | 6.4 | 0.0 | 0.00 | 0.00 | 0.00 | 76 | 1065.6 |
| 20260508213334 | 9 | 112 | 8.0 | 0.0 | 0.00 | 0.00 | 0.00 | 76 | 1065.6 |
| 20260508213212 | 9 | 90 | 9.7 | 0.0 | 0.00 | 0.00 | 0.00 | 76 | 1065.7 |
| 20260508213058 | 9 | 90 | 6.4 | 0.0 | 0.00 | 0.00 | 0.00 | 76 | 1065.7 |
| 20260508212952 | 9 | 90 | 8.0 | 0.0 | 0.00 | 0.00 | 0.00 | 76 | 1065.7 |
| 20260508212846 | 9 | 90 | 4.8 | 0.0 | 0.00 | 0.00 | 0.00 | 77 | 1065.6 |
| 20260508212734 | 9 | 90 | 3.2 | 0.0 | 0.00 | 0.00 | 0.00 | 77 | 1065.6 |
| 20260508212625 | 9 | 112 | 3.2 | 0.0 | 0.00 | 0.00 | 0.00 | 77 | 1065.7 |
| 20260508212503 | 9 | 90 | 6.4 | 0.0 | 0.00 | 0.00 | 0.00 | 77 | 1065.7 |
| 20260508212349 | 9 | 90 | 6.4 | 0.0 | 0.00 | 0.00 | 0.00 | 77 | 1065.7 |
| 20260508212243 | 9 | 90 | 6.4 | 0.0 | 0.00 | 0.00 | 0.00 | 77 | 1065.7 |
| 20260508212136 | 9 | 90 | 8.0 | 0.0 | 0.00 | 0.00 | 0.00 | 77 | 1065.8 |
| 20260508212006 | 9 | 90 | 8.0 | 0.0 | 0.00 | 0.00 | 0.00 | 77 | 1065.7 |
| 20260508211852 | 9 | 90 | 6.4 | 0.0 | 0.00 | 0.00 | 0.00 | 77 | 1065.7 |
| 20260508211746 | 9 | 90 | 6.4 | 0.0 | 0.00 | 0.00 | 0.00 | 77 | 1065.8 |
| 20260508211639 | 9 | 67 | 4.8 | 0.0 | 0.00 | 0.00 | 0.00 | 77 | 1065.8 |
| 20260508211511 | 9 | 67 | 0.0 | 0.0 | 0.00 | 0.00 | 0.00 | 77 | 1065.8 |
| 20260508211405 | 9 | 90 | 6.4 | 0.0 | 0.00 | 0.00 | 0.00 | 77 | 1065.8 |
| 20260508211258 | 9 | 90 | 8.0 | 0.0 | 0.00 | 0.00 | 0.00 | 77 | 1065.8 |
| 20260508211151 | 9 | 90 | 8.0 | 0.0 | 0.00 | 0.00 | 0.00 | 77 | 1065.8 |
| 20260508211037 | 9 | 90 | 8.0 | 0.0 | 0.00 | 0.00 | 0.00 | 77 | 1065.8 |
| 20260508210922 | 8 | 90 | 4.8 | 0.0 | 0.00 | 0.00 | 0.00 | 77 | 1065.8 |
| 20260508210803 | 8 | 90 | 8.0 | 0.0 | 0.00 | 0.00 | 0.00 | 77 | 1065.8 |
| 20260508210654 | 8 | 90 | 6.4 | 0.0 | 0.00 | 0.00 | 0.00 | 77 | 1065.8 |
| 20260508210540 | 8 | 90 | 4.8 | 0.0 | 0.00 | 0.00 | 0.00 | 77 | 1065.8 |
| 20260508210435 | 8 | 112 | 3.2 | 0.0 | 0.00 | 0.00 | 0.00 | 77 | 1065.8 |
| 20260508210328 | 8 | 112 | 3.2 | 0.0 | 0.00 | 0.00 | 0.00 | 77 | 1065.8 |
| 20260508210222 | 8 | 90 | 0.0 | 0.0 | 0.00 | 0.00 | 0.00 | 77 | 1065.7 |
| 20260508210116 | 8 | 90 | 0.0 | 0.0 | 0.00 | 0.00 | 0.00 | 77 | 1065.7 |
| 20260508210010 | 8 | 90 | 6.4 | 0.0 | 0.00 | 0.00 | 0.00 | 77 | 1065.7 |
| 20260508205904 | 9 | 67 | 3.2 | 0.0 | 0.00 | 0.00 | 0.00 | 76 | 1065.7 |
| 20260508205741 | 9 | 90 | 0.0 | 0.0 | 0.00 | 0.00 | 0.00 | 76 | 1065.7 |
| 20260508205620 | 9 | 90 | 0.0 | 0.0 | 0.00 | 0.00 | 0.00 | 76 | 1065.7 |
| 20260508205513 | 9 | 90 | 3.2 | 0.0 | 0.00 | 0.00 | 0.00 | 76 | 1065.7 |
| 20260508205352 | 9 | 90 | 0.0 | 0.0 | 0.00 | 0.00 | 0.00 | 76 | 1065.7 |
| 20260508205236 | 9 | 90 | 0.0 | 0.0 | 0.00 | 0.00 | 0.00 | 76 | 1065.8 |
| 20260508205121 | 9 | 90 | 0.0 | 0.0 | 0.00 | 0.00 | 0.00 | 76 | 1065.7 |
| 20260508205000 | 9 | 90 | 0.0 | 0.0 | 0.00 | 0.00 | 0.00 | 76 | 1065.7 |
| 20260508204845 | 9 | 90 | 0.0 | 0.0 | 0.00 | 0.00 | 0.00 | 76 | 1065.7 |
| 20260508204732 | 9 | 112 | 3.2 | 0.0 | 0.00 | 0.00 | 0.00 | 75 | 1065.7 |
| 20260508204626 | 9 | 112 | 0.0 | 0.0 | 0.00 | 0.00 | 0.00 | 75 | 1065.6 |
| 20260508204459 | 9 | 67 | 0.0 | 0.0 | 0.00 | 0.00 | 0.00 | 76 | 1065.7 |
| 20260508204350 | 9 | 67 | 0.0 | 0.0 | 0.00 | 0.00 | 0.00 | 75 | 1065.7 |
| 20260508204229 | 9 | 67 | 0.0 | 0.0 | 0.00 | 0.00 | 0.00 | 76 | 1065.8 |
| 20260508204114 | 9 | 67 | 0.0 | 0.0 | 0.00 | 0.00 | 0.00 | 75 | 1065.8 |
| 20260508204000 | 9 | 67 | 0.0 | 0.0 | 0.00 | 0.00 | 0.00 | 75 | 1065.8 |
| 20260508203831 | 9 | 45 | 0.0 | 0.0 | 0.00 | 0.00 | 0.00 | 75 | 1065.8 |
| 20260508203718 | 10 | 90 | 0.0 | 0.0 | 0.00 | 0.00 | 0.00 | 75 | 1065.8 |
| 20260508203605 | 10 | 45 | 0.0 | 0.0 | 0.00 | 0.00 | 0.00 | 75 | 1065.8 |
| 20260508203500 | 10 | 45 | 0.0 | 0.0 | 0.00 | 0.00 | 0.00 | 75 | 1065.8 |
| 20260508203340 | 10 | 45 | 0.0 | 0.0 | 0.00 | 0.00 | 0.00 | 75 | 1065.8 |
| 20260508203235 | 10 | 45 | 0.0 | 0.0 | 0.00 | 0.00 | 0.00 | 75 | 1065.8 |
| 20260508203121 | 10 | 67 | 0.0 | 0.0 | 0.00 | 0.00 | 0.00 | 75 | 1065.7 |
| 20260508203008 | 10 | 67 | 0.0 | 0.0 | 0.00 | 0.00 | 0.00 | 75 | 1065.7 |
| 20260508202901 | 10 | 67 | 0.0 | 0.0 | 0.00 | 0.00 | 0.00 | 75 | 1065.7 |
| 20260508202744 | 10 | 67 | 0.0 | 0.0 | 0.00 | 0.00 | 0.00 | 75 | 1065.7 |
| 20260508202628 | 10 | 67 | 0.0 | 0.0 | 0.00 | 0.00 | 0.00 | 76 | 1065.7 |
| 20260508202515 | 10 | 90 | 4.8 | 0.0 | 0.00 | 0.00 | 0.00 | 76 | 1065.7 |
| 20260508202409 | 10 | 90 | 6.4 | 0.0 | 0.00 | 0.00 | 0.00 | 76 | 1065.7 |
| 20260508202241 | 10 | 45 | 0.0 | 0.0 | 0.00 | 0.00 | 0.00 | 76 | 1065.7 |
| 20260508202127 | 10 | 90 | 0.0 | 0.0 | 0.00 | 0.00 | 0.00 | 76 | 1065.7 |
| 20260508202006 | 10 | 112 | 6.4 | 0.0 | 0.00 | 0.00 | 0.00 | 76 | 1065.6 |
| 20260508201854 | 10 | 90 | 4.8 | 0.0 | 0.00 | 0.00 | 0.00 | 76 | 1065.6 |
| 20260508201748 | 10 | 90 | 0.0 | 0.0 | 0.00 | 0.00 | 0.00 | 76 | 1065.6 |
| 20260508201635 | 10 | 90 | 6.4 | 0.0 | 0.00 | 0.00 | 0.00 | 76 | 1065.6 |
| 20260508201530 | 10 | 90 | 0.0 | 0.0 | 0.00 | 0.00 | 0.00 | 76 | 1065.6 |
| 20260508201424 | 10 | 90 | 0.0 | 0.0 | 0.00 | 0.00 | 0.00 | 77 | 1065.6 |
| 20260508201318 | 10 | 67 | 1.6 | 0.0 | 0.00 | 0.00 | 0.00 | 77 | 1065.6 |
| 20260508201213 | 10 | 67 | 0.0 | 0.0 | 0.00 | 0.00 | 0.00 | 77 | 1065.5 |
| 20260508201107 | 10 | 67 | 6.4 | 0.0 | 0.00 | 0.00 | 0.00 | 77 | 1065.6 |
| 20260508201001 | 10 | 67 | 0.0 | 0.0 | 0.00 | 0.00 | 0.00 | 78 | 1065.6 |
| 20260508200854 | 10 | 90 | 4.8 | 0.0 | 0.00 | 0.00 | 0.00 | 78 | 1065.5 |
| 20260508200731 | 10 | 112 | 11.3 | 0.0 | 0.00 | 0.00 | 0.00 | 78 | 1065.5 |
| 20260508200611 | 10 | 67 | 8.0 | 0.0 | 0.00 | 0.00 | 0.00 | 78 | 1065.5 |
| 20260508200450 | 10 | 90 | 8.0 | 0.0 | 0.00 | 0.00 | 0.00 | 78 | 1065.5 |
| 20260508200345 | 10 | 90 | 3.2 | 0.0 | 0.00 | 0.00 | 0.00 | 78 | 1065.5 |
| 20260508200230 | 10 | 90 | 12.9 | 0.0 | 0.00 | 0.00 | 0.00 | 78 | 1065.5 |
| 20260508200121 | 10 | 67 | 9.7 | 0.0 | 0.00 | 0.00 | 0.00 | 78 | 1065.5 |
| 20260508200013 | 10 | 67 | 4.8 | 0.0 | 0.00 | 0.00 | 0.00 | 78 | 1065.5 |
| 20260508195900 | 10 | 67 | 0.0 | 0.0 | 0.00 | 0.00 | 0.00 | 78 | 1065.5 |
| 20260508195749 | 10 | 67 | 3.2 | 0.0 | 0.00 | 0.00 | 0.00 | 78 | 1065.5 |
| 20260508195642 | 10 | 67 | 6.4 | 0.0 | 0.00 | 0.00 | 0.00 | 78 | 1065.5 |
| 20260508195529 | 10 | 45 | 9.7 | 0.0 | 0.00 | 0.00 | 0.00 | 78 | 1065.5 |
| 20260508195416 | 10 | 45 | 6.4 | 0.0 | 0.00 | 0.00 | 0.00 | 78 | 1065.5 |
| 20260508195311 | 10 | 90 | 11.3 | 0.0 | 0.00 | 0.00 | 0.00 | 79 | 1065.5 |
| 20260508195158 | 10 | 67 | 0.0 | 0.0 | 0.00 | 0.00 | 0.00 | 79 | 1065.5 |
| 20260508195045 | 10 | 67 | 0.0 | 0.0 | 0.00 | 0.00 | 0.00 | 79 | 1065.5 |
| 20260508194934 | 10 | 90 | 0.0 | 0.0 | 0.00 | 0.00 | 0.00 | 79 | 1065.5 |
| 20260508194829 | 10 | 90 | 8.0 | 0.0 | 0.00 | 0.00 | 0.00 | 79 | 1065.5 |
| 20260508194721 | 10 | 90 | 0.0 | 0.0 | 0.00 | 0.00 | 0.00 | 79 | 1065.4 |
| 20260508194608 | 10 | 67 | 6.4 | 0.0 | 0.00 | 0.00 | 0.00 | 79 | 1065.4 |
| 20260508194442 | 10 | 67 | 4.8 | 0.0 | 0.00 | 0.00 | 0.00 | 79 | 1065.5 |
| 20260508194334 | 10 | 67 | 0.0 | 0.0 | 0.00 | 0.00 | 0.00 | 79 | 1065.4 |
| 20260508194222 | 10 | 90 | 9.7 | 0.0 | 0.00 | 0.00 | 0.00 | 79 | 1065.5 |
| 20260508194115 | 10 | 67 | 9.7 | 0.0 | 0.00 | 0.00 | 0.00 | 79 | 1065.4 |
| 20260508193955 | 10 | 90 | 11.3 | 0.0 | 0.00 | 0.00 | 0.00 | 79 | 1065.4 |
| 20260508193852 | 10 | 45 | 8.0 | 0.0 | 0.00 | 0.00 | 0.00 | 78 | 1065.4 |
| 20260508193745 | 10 | 90 | 3.2 | 0.0 | 0.00 | 0.00 | 0.00 | 78 | 1065.4 |
| 20260508193632 | 10 | 67 | 3.2 | 0.0 | 0.00 | 0.00 | 0.00 | 78 | 1065.3 |
| 20260508193519 | 10 | 112 | 11.3 | 0.0 | 0.00 | 0.00 | 0.00 | 78 | 1065.4 |
| 20260508193406 | 10 | 67 | 9.7 | 0.0 | 0.00 | 0.00 | 0.00 | 78 | 1065.4 |
| 20260508193252 | 10 | 67 | 3.2 | 0.0 | 0.00 | 0.00 | 0.00 | 77 | 1065.3 |
| 20260508193136 | 10 | 67 | 0.0 | 0.0 | 0.00 | 0.00 | 0.00 | 77 | 1065.2 |
| 20260508193021 | 10 | 90 | 0.0 | 0.0 | 0.00 | 0.00 | 0.00 | 77 | 1065.3 |
| 20260508192851 | 10 | 90 | 9.7 | 0.0 | 0.00 | 0.00 | 0.00 | 77 | 1065.2 |
| 20260508192737 | 10 | 90 | 0.0 | 0.0 | 0.00 | 0.00 | 0.00 | 76 | 1065.3 |
| 20260508192631 | 10 | 90 | 3.2 | 0.0 | 0.00 | 0.00 | 0.00 | 76 | 1065.3 |
| 20260508192523 | 10 | 90 | 9.7 | 0.0 | 0.00 | 0.00 | 0.00 | 76 | 1065.3 |
| 20260508192403 | 10 | 90 | 0.0 | 0.0 | 0.00 | 0.00 | 0.00 | 75 | 1065.2 |
| 20260508192242 | 11 | 90 | 8.0 | 0.0 | 0.00 | 0.00 | 0.00 | 75 | 1065.2 |
| 20260508192136 | 11 | 90 | 8.0 | 0.0 | 0.00 | 0.00 | 0.00 | 75 | 1065.2 |
| 20260508192016 | 11 | 45 | 11.3 | 0.0 | 0.00 | 0.00 | 0.00 | 74 | 1065.2 |
| 20260508191910 | 11 | 67 | 0.0 | 0.0 | 0.00 | 0.00 | 0.00 | 74 | 1065.2 |
| 20260508191757 | 11 | 67 | 9.7 | 0.0 | 0.00 | 0.00 | 0.00 | 73 | 1065.2 |
| 20260508191644 | 11 | 67 | 9.7 | 0.0 | 0.00 | 0.00 | 0.00 | 73 | 1065.2 |
| 20260508191531 | 11 | 112 | 0.0 | 0.0 | 0.00 | 0.00 | 0.00 | 73 | 1065.2 |
| 20260508191410 | 11 | 90 | 8.0 | 0.0 | 0.00 | 0.00 | 0.00 | 72 | 1065.2 |
| 20260508191248 | 11 | 90 | 0.0 | 0.0 | 0.00 | 0.00 | 0.00 | 72 | 1065.1 |
| 20260508191128 | 11 | 112 | 12.9 | 0.0 | 0.00 | 0.00 | 0.00 | 71 | 1065.2 |
| 20260508191024 | 11 | 67 | 8.0 | 0.0 | 0.00 | 0.00 | 0.00 | 71 | 1065.2 |
| 20260508190917 | 11 | 45 | 14.5 | 0.0 | 0.00 | 0.00 | 0.00 | 71 | 1065.2 |
| 20260508190810 | 11 | 67 | 0.0 | 0.0 | 0.00 | 0.00 | 0.00 | 71 | 1065.2 |
| 20260508190658 | 11 | 67 | 9.7 | 0.0 | 0.00 | 0.00 | 0.00 | 71 | 1065.1 |
| 20260508190544 | 11 | 90 | 14.5 | 0.0 | 0.00 | 0.00 | 0.00 | 71 | 1065.2 |
| 20260508190422 | 11 | 112 | 8.0 | 0.0 | 0.00 | 0.00 | 0.00 | 70 | 1065.1 |
| 20260508190301 | 11 | 67 | 0.0 | 0.0 | 0.00 | 0.00 | 0.00 | 70 | 1065.1 |
| 20260508190148 | 12 | 45 | 0.0 | 0.0 | 0.00 | 0.00 | 0.00 | 69 | 1065.2 |
| 20260508190034 | 12 | 67 | 9.7 | 0.0 | 0.00 | 0.00 | 0.00 | 69 | 1065.1 |
| 20260508185922 | 12 | 67 | 0.0 | 0.0 | 0.00 | 0.00 | 0.00 | 69 | 1065.1 |
| 20260508185817 | 12 | 67 | 0.0 | 0.0 | 0.00 | 0.00 | 0.00 | 68 | 1065.1 |
| 20260508185656 | 12 | 90 | 3.2 | 0.0 | 0.00 | 0.00 | 0.00 | 68 | 1065.0 |
| 20260508185543 | 12 | 67 | 3.2 | 0.0 | 0.00 | 0.00 | 0.00 | 68 | 1065.1 |
| 20260508185430 | 12 | 67 | 9.7 | 0.0 | 0.00 | 0.00 | 0.00 | 68 | 1065.1 |
| 20260508185323 | 12 | 67 | 11.3 | 0.0 | 0.00 | 0.00 | 0.00 | 68 | 1065.0 |
| 20260508185212 | 12 | 90 | 0.0 | 0.0 | 0.00 | 0.00 | 0.00 | 68 | 1065.0 |
| 20260508185050 | 12 | 67 | 8.0 | 0.0 | 0.00 | 0.00 | 0.00 | 67 | 1065.0 |
| 20260508184938 | 12 | 45 | 0.0 | 0.0 | 0.00 | 0.00 | 0.00 | 67 | 1065.0 |
| 20260508184832 | 12 | 90 | 0.0 | 0.0 | 0.00 | 0.00 | 0.00 | 67 | 1065.0 |
| 20260508184712 | 12 | 90 | 8.0 | 0.0 | 0.00 | 0.00 | 0.00 | 67 | 1065.0 |
| 20260508184600 | 12 | 112 | 8.0 | 0.0 | 0.00 | 0.00 | 0.00 | 67 | 1065.1 |
| 20260508184452 | 12 | 22 | 11.3 | 0.0 | 0.00 | 0.00 | 0.00 | 67 | 1065.0 |
| 20260508184338 | 13 | 112 | 9.7 | 0.0 | 0.00 | 0.00 | 0.00 | 66 | 1065.0 |
| 20260508184212 | 13 | 45 | 0.0 | 0.0 | 0.00 | 0.00 | 0.00 | 66 | 1065.1 |
| 20260508184108 | 13 | 45 | 12.9 | 0.0 | 0.00 | 0.00 | 0.00 | 66 | 1065.1 |
| 20260508184000 | 13 | 90 | 11.3 | 0.0 | 0.00 | 0.00 | 0.00 | 66 | 1065.0 |
| 20260508183846 | 13 | 67 | 8.0 | 0.0 | 0.00 | 0.00 | 0.00 | 65 | 1065.0 |
| 20260508183717 | 13 | 45 | 14.5 | 0.0 | 0.00 | 0.00 | 0.00 | 65 | 1064.9 |
| 20260508183607 | 13 | 90 | 4.8 | 0.0 | 0.00 | 0.00 | 0.00 | 65 | 1064.9 |
| 20260508183501 | 13 | 90 | 8.0 | 0.0 | 0.00 | 0.00 | 0.00 | 65 | 1064.9 |
| 20260508183355 | 13 | 112 | 16.1 | 0.0 | 0.00 | 0.00 | 0.00 | 65 | 1065.0 |
| 20260508183240 | 13 | 45 | 0.0 | 0.0 | 0.00 | 0.00 | 0.00 | 65 | 1065.0 |
| 20260508183120 | 13 | 67 | 0.0 | 0.0 | 0.00 | 0.00 | 0.00 | 65 | 1064.9 |
| 20260508182959 | 13 | 90 | 8.0 | 0.0 | 0.00 | 0.00 | 0.00 | 65 | 1064.9 |
| 20260508182840 | 13 | 67 | 0.0 | 0.0 | 0.00 | 0.00 | 0.00 | 65 | 1064.9 |
| 20260508182733 | 13 | 112 | 9.7 | 0.0 | 0.00 | 0.00 | 0.00 | 65 | 1065.0 |
| 20260508182620 | 13 | 90 | 11.3 | 0.0 | 0.00 | 0.00 | 0.00 | 65 | 1064.9 |
| 20260508182506 | 13 | 90 | 9.7 | 0.0 | 0.00 | 0.00 | 0.00 | 65 | 1064.8 |
| 20260508182353 | 13 | 45 | 3.2 | 0.0 | 0.00 | 0.00 | 0.00 | 64 | 1064.8 |
| 20260508182232 | 13 | 67 | 14.5 | 0.0 | 0.00 | 0.00 | 0.00 | 64 | 1064.8 |
| 20260508182110 | 13 | 90 | 6.4 | 0.0 | 0.00 | 0.00 | 0.00 | 64 | 1064.8 |
| 20260508181956 | 13 | 67 | 16.1 | 0.0 | 0.00 | 0.00 | 0.00 | 64 | 1064.7 |
| 20260508181842 | 13 | 45 | 6.4 | 0.0 | 0.00 | 0.00 | 0.00 | 64 | 1064.9 |
| 20260508181736 | 13 | 67 | 1.6 | 0.0 | 0.00 | 0.00 | 0.00 | 64 | 1064.8 |
| 20260508181623 | 13 | 67 | 12.9 | 0.0 | 0.00 | 0.00 | 0.00 | 64 | 1064.8 |
| 20260508181503 | 13 | 112 | 14.5 | 0.0 | 0.00 | 0.00 | 0.00 | 63 | 1064.8 |
| 20260508181350 | 13 | 90 | 14.5 | 0.0 | 0.00 | 0.00 | 0.00 | 63 | 1064.8 |
| 20260508181244 | 13 | 67 | 0.0 | 0.0 | 0.00 | 0.00 | 0.00 | 63 | 1064.8 |
| 20260508181133 | 13 | 22 | 17.7 | 0.0 | 0.00 | 0.00 | 0.00 | 63 | 1064.8 |
| 20260508181018 | 14 | 90 | 11.3 | 0.0 | 0.00 | 0.00 | 0.00 | 63 | 1064.8 |
| 20260508180905 | 14 | 67 | 14.5 | 0.0 | 0.00 | 0.00 | 0.00 | 63 | 1064.8 |
| 20260508180751 | 14 | 90 | 14.5 | 0.0 | 0.00 | 0.00 | 0.00 | 63 | 1064.9 |
| 20260508180623 | 14 | 45 | 16.1 | 0.0 | 0.00 | 0.00 | 0.00 | 63 | 1064.8 |
| 20260508180510 | 14 | 67 | 12.9 | 0.0 | 0.00 | 0.00 | 0.00 | 62 | 1064.9 |
| 20260508180404 | 14 | 90 | 6.4 | 0.0 | 0.00 | 0.00 | 0.00 | 62 | 1064.9 |
| 20260508180251 | 14 | 90 | 16.1 | 0.0 | 0.00 | 0.00 | 0.00 | 62 | 1064.9 |
| 20260508180130 | 14 | 112 | 6.4 | 0.0 | 0.00 | 0.00 | 0.00 | 62 | 1064.9 |
| 20260508180017 | 14 | 45 | 16.1 | 0.0 | 0.00 | 0.00 | 0.00 | 62 | 1064.8 |
| 20260508175855 | 14 | 22 | 14.5 | 0.0 | 0.00 | 0.00 | 0.00 | 61 | 1064.7 |
| 20260508175734 | 14 | 90 | 8.0 | 0.0 | 0.00 | 0.00 | 0.00 | 61 | 1064.7 |
| 20260508175605 | 14 | 90 | 8.0 | 0.0 | 0.00 | 0.00 | 0.00 | 61 | 1064.7 |
| 20260508175452 | 14 | 67 | 9.7 | 0.0 | 0.00 | 0.00 | 0.00 | 61 | 1064.7 |
| 20260508175346 | 14 | 90 | 12.9 | 0.0 | 0.00 | 0.00 | 0.00 | 61 | 1064.7 |
| 20260508175234 | 14 | 67 | 0.0 | 0.0 | 0.00 | 0.00 | 0.00 | 60 | 1064.7 |
| 20260508175113 | 14 | 22 | 9.7 | 0.0 | 0.00 | 0.00 | 0.00 | 60 | 1064.7 |
| 20260508175000 | 15 | 90 | 17.7 | 0.0 | 0.00 | 0.00 | 0.00 | 60 | 1064.7 |
| 20260508174847 | 14 | 67 | 17.7 | 0.0 | 0.00 | 0.00 | 0.00 | 60 | 1064.7 |
| 20260508174725 | 15 | 90 | 19.3 | 0.0 | 0.00 | 0.00 | 0.00 | 59 | 1064.6 |
| 20260508174612 | 15 | 67 | 9.7 | 0.0 | 0.00 | 0.00 | 0.00 | 59 | 1064.6 |
| 20260508174507 | 15 | 112 | 0.0 | 0.0 | 0.00 | 0.00 | 0.00 | 59 | 1064.6 |
| 20260508174356 | 15 | 112 | 16.1 | 0.0 | 0.00 | 0.00 | 0.00 | 58 | 1064.6 |
| 20260508174250 | 15 | 67 | 0.0 | 0.0 | 0.00 | 0.00 | 0.00 | 58 | 1064.7 |
| 20260508174136 | 15 | 90 | 12.9 | 0.0 | 0.00 | 0.00 | 0.00 | 58 | 1064.6 |
| 20260508174024 | 15 | 90 | 0.0 | 0.0 | 0.00 | 0.00 | 0.00 | 58 | 1064.7 |
| 20260508173912 | 15 | 90 | 19.3 | 0.0 | 0.00 | 0.00 | 0.00 | 58 | 1064.6 |
| 20260508173750 | 15 | 90 | 9.7 | 0.0 | 0.00 | 0.00 | 0.00 | 58 | 1064.7 |
| 20260508173632 | 15 | 67 | 9.7 | 0.0 | 0.00 | 0.00 | 0.00 | 58 | 1064.6 |
| 20260508173525 | 15 | 45 | 6.4 | 0.0 | 0.00 | 0.00 | 0.00 | 58 | 1064.7 |
| 20260508173348 | 15 | 90 | 0.0 | 0.0 | 0.00 | 0.00 | 0.00 | 57 | 1064.6 |
| 20260508173227 | 15 | 22 | 11.3 | 0.0 | 0.00 | 0.00 | 0.00 | 57 | 1064.7 |
| 20260508173116 | 15 | 45 | 9.7 | 0.0 | 0.00 | 0.00 | 0.00 | 57 | 1064.6 |
| 20260508173009 | 15 | 45 | 17.7 | 0.0 | 0.00 | 0.00 | 0.00 | 56 | 1064.6 |
| 20260508172856 | 15 | 90 | 11.3 | 0.0 | 0.00 | 0.00 | 0.00 | 56 | 1064.6 |
| 20260508172752 | 15 | 45 | 8.0 | 0.0 | 0.00 | 0.00 | 0.00 | 56 | 1064.6 |
| 20260508172646 | 15 | 90 | 6.4 | 0.0 | 0.00 | 0.00 | 0.00 | 56 | 1064.6 |
| 20260508172542 | 15 | 112 | 11.3 | 0.0 | 0.00 | 0.00 | 0.00 | 55 | 1064.6 |
| 20260508172436 | 15 | 90 | 24.1 | 0.0 | 0.00 | 0.00 | 0.00 | 55 | 1064.6 |
| 20260508172333 | 15 | 22 | 11.3 | 0.0 | 0.00 | 0.00 | 0.00 | 55 | 1064.6 |
| 20260508172226 | 15 | 45 | 8.0 | 0.0 | 0.00 | 0.00 | 0.00 | 55 | 1064.5 |
| 20260508172112 | 15 | 45 | 9.7 | 0.0 | 0.00 | 0.00 | 0.00 | 55 | 1064.5 |
| 20260508171959 | 15 | 45 | 12.9 | 0.0 | 0.00 | 0.00 | 0.00 | 55 | 1064.5 |
| 20260508171846 | 15 | 90 | 9.7 | 0.0 | 0.00 | 0.00 | 0.00 | 55 | 1064.5 |
| 20260508171733 | 15 | 22 | 11.3 | 0.0 | 0.00 | 0.00 | 0.00 | 55 | 1064.5 |
| 20260508171622 | 15 | 112 | 17.7 | 0.0 | 0.00 | 0.00 | 0.00 | 54 | 1064.5 |
| 20260508171514 | 15 | 67 | 3.2 | 0.0 | 0.00 | 0.00 | 0.00 | 54 | 1064.5 |
| 20260508171404 | 15 | 90 | 0.0 | 0.0 | 0.00 | 0.00 | 0.00 | 54 | 1064.5 |
| 20260508171257 | 15 | 45 | 0.0 | 0.0 | 0.00 | 0.00 | 0.00 | 54 | 1064.5 |
| 20260508171144 | 15 | 90 | 14.5 | 0.0 | 0.00 | 0.00 | 0.00 | 54 | 1064.4 |
| 20260508171031 | 16 | 45 | 11.3 | 0.0 | 0.00 | 0.00 | 0.00 | 53 | 1064.4 |
| 20260508170927 | 16 | 67 | 9.7 | 0.0 | 0.00 | 0.00 | 0.00 | 53 | 1064.4 |
| 20260508170820 | 16 | 67 | 9.7 | 0.0 | 0.00 | 0.00 | 0.00 | 53 | 1064.4 |
| 20260508170659 | 16 | 67 | 6.4 | 0.0 | 0.00 | 0.00 | 0.00 | 52 | 1064.4 |
| 20260508170539 | 16 | 112 | 9.7 | 0.0 | 0.00 | 0.00 | 0.00 | 52 | 1064.4 |
| 20260508170435 | 16 | 90 | 12.9 | 0.0 | 0.00 | 0.00 | 0.00 | 51 | 1064.4 |
| 20260508170328 | 16 | 90 | 9.7 | 0.0 | 0.00 | 0.00 | 0.00 | 51 | 1064.4 |
| 20260508170214 | 16 | 112 | 11.3 | 0.0 | 0.00 | 0.00 | 0.00 | 51 | 1064.4 |
| 20260508170103 | 16 | 67 | 17.7 | 0.0 | 0.00 | 0.00 | 0.00 | 51 | 1064.4 |
| 20260508165949 | 16 | 67 | 12.9 | 0.0 | 0.00 | 0.00 | 0.00 | 51 | 1064.4 |
| 20260508165819 | 16 | 90 | 9.7 | 0.0 | 0.00 | 0.00 | 0.00 | 50 | 1064.4 |
| 20260508165658 | 16 | 90 | 9.7 | 0.0 | 0.00 | 0.00 | 0.00 | 49 | 1064.3 |
| 20260508165536 | 16 | 112 | 14.5 | 0.0 | 0.00 | 0.00 | 0.00 | 49 | 1064.3 |
| 20260508165416 | 16 | 67 | 9.7 | 0.0 | 0.00 | 0.00 | 0.00 | 49 | 1064.3 |
| 20260508165255 | 16 | 45 | 6.4 | 0.0 | 0.00 | 0.00 | 0.00 | 49 | 1064.3 |
| 20260508165150 | 16 | 45 | 11.3 | 0.0 | 0.00 | 0.00 | 0.00 | 49 | 1064.3 |
| 20260508165044 | 16 | 22 | 11.3 | 0.0 | 0.00 | 0.00 | 0.00 | 50 | 1064.3 |
| 20260508164923 | 16 | 90 | 6.4 | 0.0 | 0.00 | 0.00 | 0.00 | 50 | 1064.3 |
| 20260508164810 | 16 | 67 | 11.3 | 0.0 | 0.00 | 0.00 | 0.00 | 50 | 1064.3 |
| 20260508164649 | 16 | 90 | 14.5 | 0.0 | 0.00 | 0.00 | 0.00 | 51 | 1064.3 |
| 20260508164536 | 16 | 45 | 11.3 | 0.0 | 0.00 | 0.00 | 0.00 | 51 | 1064.3 |
| 20260508164430 | 16 | 90 | 9.7 | 0.0 | 0.00 | 0.00 | 0.00 | 51 | 1064.3 |
| 20260508164317 | 16 | 90 | 12.9 | 0.0 | 0.00 | 0.00 | 0.00 | 51 | 1064.2 |
| 20260508164156 | 16 | 90 | 6.4 | 0.0 | 0.00 | 0.00 | 0.00 | 51 | 1064.3 |
| 20260508164043 | 16 | 112 | 20.9 | 0.0 | 0.00 | 0.00 | 0.00 | 51 | 1064.3 |
| 20260508163924 | 16 | 67 | 24.1 | 0.0 | 0.00 | 0.00 | 0.00 | 51 | 1064.2 |
| 20260508163809 | 16 | 45 | 9.7 | 0.0 | 0.00 | 0.00 | 0.00 | 51 | 1064.3 |
| 20260508163647 | 16 | 67 | 3.2 | 0.0 | 0.00 | 0.00 | 0.00 | 51 | 1064.3 |
| 20260508163527 | 16 | 135 | 14.5 | 0.0 | 0.00 | 0.00 | 0.00 | 50 | 1064.3 |
| 20260508163415 | 16 | 45 | 11.3 | 0.0 | 0.00 | 0.00 | 0.00 | 50 | 1064.3 |
| 20260508163254 | 16 | 67 | 9.7 | 0.0 | 0.00 | 0.00 | 0.00 | 49 | 1064.3 |
| 20260508163140 | 16 | 45 | 14.5 | 0.0 | 0.00 | 0.00 | 0.00 | 49 | 1064.3 |
| 20260508163028 | 16 | 45 | 19.3 | 0.0 | 0.00 | 0.00 | 0.00 | 50 | 1064.3 |
| 20260508162917 | 16 | 67 | 0.0 | 0.0 | 0.00 | 0.00 | 0.00 | 50 | 1064.3 |
| 20260508162809 | 16 | 112 | 16.1 | 0.0 | 0.00 | 0.00 | 0.00 | 49 | 1064.3 |
| 20260508162648 | 16 | 90 | 14.5 | 0.0 | 0.00 | 0.00 | 0.00 | 49 | 1064.4 |
| 20260508162535 | 17 | 90 | 17.7 | 0.0 | 0.00 | 0.00 | 0.00 | 49 | 1064.3 |
| 20260508162430 | 17 | 67 | 11.3 | 0.0 | 0.00 | 0.00 | 0.00 | 49 | 1064.4 |
| 20260508162309 | 17 | 112 | 24.1 | 0.0 | 0.00 | 0.00 | 0.00 | 49 | 1064.3 |
| 20260508162148 | 17 | 67 | 16.1 | 0.0 | 0.00 | 0.00 | 0.00 | 49 | 1064.4 |
| 20260508162034 | 17 | 45 | 12.9 | 0.0 | 0.00 | 0.00 | 0.00 | 48 | 1064.4 |
| 20260508161915 | 17 | 67 | 17.7 | 0.0 | 0.00 | 0.00 | 0.00 | 49 | 1064.3 |
| 20260508161808 | 17 | 90 | 14.5 | 0.0 | 0.00 | 0.00 | 0.00 | 49 | 1064.2 |
| 20260508161654 | 17 | 22 | 4.8 | 0.0 | 0.00 | 0.00 | 0.00 | 48 | 1064.3 |
| 20260508161535 | 17 | 67 | 11.3 | 0.0 | 0.00 | 0.00 | 0.00 | 47 | 1064.3 |
| 20260508161421 | 17 | 90 | 9.7 | 0.0 | 0.00 | 0.00 | 0.00 | 48 | 1064.2 |
| 20260508161308 | 17 | 112 | 16.1 | 0.0 | 0.00 | 0.00 | 0.00 | 49 | 1064.2 |
| 20260508161201 | 17 | 45 | 8.0 | 0.0 | 0.00 | 0.00 | 0.00 | 49 | 1064.2 |
| 20260508161041 | 17 | 45 | 8.0 | 0.0 | 0.00 | 0.00 | 0.00 | 48 | 1064.2 |
| 20260508160926 | 17 | 67 | 6.4 | 0.0 | 0.00 | 0.00 | 0.00 | 47 | 1064.2 |
| 20260508160814 | 17 | 112 | 20.9 | 0.0 | 0.00 | 0.00 | 0.00 | 47 | 1064.3 |
| 20260508160710 | 17 | 67 | 12.9 | 0.0 | 0.00 | 0.00 | 0.00 | 47 | 1064.2 |
| 20260508160603 | 17 | 45 | 9.7 | 0.0 | 0.00 | 0.00 | 0.00 | 46 | 1064.2 |
| 20260508160442 | 17 | 112 | 9.7 | 0.0 | 0.00 | 0.00 | 0.00 | 46 | 1064.2 |
| 20260508160329 | 17 | 45 | 14.5 | 0.0 | 0.00 | 0.00 | 0.00 | 45 | 1064.2 |
| 20260508160216 | 17 | 67 | 14.5 | 0.0 | 0.00 | 0.00 | 0.00 | 45 | 1064.2 |
| 20260508160054 | 17 | 45 | 8.0 | 0.0 | 0.00 | 0.00 | 0.00 | 45 | 1064.2 |
| 20260508155941 | 17 | 112 | 19.3 | 0.0 | 0.00 | 0.00 | 0.00 | 44 | 1064.2 |
| 20260508155828 | 17 | 67 | 8.0 | 0.0 | 0.00 | 0.00 | 0.00 | 44 | 1064.2 |
| 20260508155723 | 17 | 67 | 17.7 | 0.0 | 0.00 | 0.00 | 0.00 | 44 | 1064.2 |
| 20260508155612 | 17 | 45 | 8.0 | 0.0 | 0.00 | 0.00 | 0.00 | 44 | 1064.2 |
| 20260508155505 | 17 | 67 | 16.1 | 0.0 | 0.00 | 0.00 | 0.00 | 44 | 1064.2 |
| 20260508155352 | 17 | 90 | 29.0 | 0.0 | 0.00 | 0.00 | 0.00 | 44 | 1064.2 |
| 20260508155239 | 17 | 90 | 17.7 | 0.0 | 0.00 | 0.00 | 0.00 | 44 | 1064.2 |
| 20260508155126 | 17 | 90 | 11.3 | 0.0 | 0.00 | 0.00 | 0.00 | 44 | 1064.2 |
| 20260508155021 | 17 | 45 | 14.5 | 0.0 | 0.00 | 0.00 | 0.00 | 45 | 1064.2 |
| 20260508154859 | 17 | 67 | 25.7 | 0.0 | 0.00 | 0.00 | 0.00 | 49 | 1064.2 |
| 20260508154738 | 17 | 90 | 3.2 | 0.0 | 0.00 | 0.00 | 0.00 | 49 | 1064.2 |
| 20260508154625 | 17 | 90 | 8.0 | 0.0 | 0.00 | 0.00 | 0.00 | 49 | 1064.2 |
| 20260508154514 | 17 | 67 | 4.8 | 0.0 | 0.00 | 0.00 | 0.00 | 48 | 1064.2 |
| 20260508154359 | 17 | 45 | 22.5 | 0.0 | 0.00 | 0.00 | 0.00 | 48 | 1064.2 |
| 20260508154246 | 17 | 67 | 9.7 | 0.0 | 0.00 | 0.00 | 0.00 | 47 | 1064.3 |
| 20260508154141 | 17 | 22 | 27.4 | 0.0 | 0.00 | 0.00 | 0.00 | 48 | 1064.2 |
| 20260508154027 | 17 | 67 | 20.9 | 0.0 | 0.00 | 0.00 | 0.00 | 48 | 1064.2 |
| 20260508153908 | 17 | 45 | 19.3 | 0.0 | 0.00 | 0.00 | 0.00 | 46 | 1064.2 |
| 20260508153801 | 17 | 112 | 12.9 | 0.0 | 0.00 | 0.00 | 0.00 | 47 | 1064.2 |
| 20260508153648 | 17 | 90 | 19.3 | 0.0 | 0.00 | 0.00 | 0.00 | 47 | 1064.3 |
| 20260508153543 | 17 | 90 | 22.5 | 0.0 | 0.00 | 0.00 | 0.00 | 47 | 1064.2 |
| 20260508153421 | 17 | 90 | 12.9 | 0.0 | 0.00 | 0.00 | 0.00 | 48 | 1064.1 |
| 20260508153301 | 17 | 22 | 22.5 | 0.0 | 0.00 | 0.00 | 0.00 | 47 | 1064.1 |
| 20260508153155 | 17 | 45 | 17.7 | 0.0 | 0.00 | 0.00 | 0.00 | 47 | 1064.2 |
| 20260508153034 | 17 | 22 | 12.9 | 0.0 | 0.00 | 0.00 | 0.00 | 47 | 1064.1 |
| 20260508152913 | 17 | 45 | 12.9 | 0.0 | 0.00 | 0.00 | 0.00 | 46 | 1064.2 |
| 20260508152744 | 17 | 45 | 0.0 | 0.0 | 0.00 | 0.00 | 0.00 | 45 | 1064.2 |
| 20260508152631 | 17 | 67 | 16.1 | 0.0 | 0.00 | 0.00 | 0.00 | 43 | 1064.3 |
| 20260508152518 | 17 | 45 | 12.9 | 0.0 | 0.00 | 0.00 | 0.00 | 44 | 1064.3 |
| 20260508152405 | 17 | 67 | 17.7 | 0.0 | 0.00 | 0.00 | 0.00 | 45 | 1064.3 |
| 20260508152301 | 18 | 90 | 8.0 | 0.0 | 0.00 | 0.00 | 0.00 | 45 | 1064.2 |
| 20260508152147 | 18 | 90 | 4.8 | 0.0 | 0.00 | 0.00 | 0.00 | 45 | 1064.2 |
| 20260508152026 | 18 | 90 | 22.5 | 0.0 | 0.00 | 0.00 | 0.00 | 45 | 1064.3 |
| 20260508151921 | 18 | 67 | 19.3 | 0.0 | 0.00 | 0.00 | 0.00 | 45 | 1064.2 |
| 20260508151759 | 18 | 22 | 11.3 | 0.0 | 0.00 | 0.00 | 0.00 | 45 | 1064.2 |
| 20260508151647 | 18 | 67 | 8.0 | 0.0 | 0.00 | 0.00 | 0.00 | 45 | 1064.2 |
| 20260508151534 | 18 | 45 | 0.0 | 0.0 | 0.00 | 0.00 | 0.00 | 44 | 1064.2 |
| 20260508151414 | 18 | 90 | 9.7 | 0.0 | 0.00 | 0.00 | 0.00 | 45 | 1064.2 |
| 20260508151307 | 18 | 67 | 20.9 | 0.0 | 0.00 | 0.00 | 0.00 | 45 | 1064.2 |
| 20260508151157 | 18 | 90 | 12.9 | 0.0 | 0.00 | 0.00 | 0.00 | 45 | 1064.1 |
| 20260508151049 | 18 | 112 | 12.9 | 0.0 | 0.00 | 0.00 | 0.00 | 44 | 1064.2 |
| 20260508150929 | 18 | 45 | 25.7 | 0.0 | 0.00 | 0.00 | 0.00 | 44 | 1064.2 |
| 20260508150815 | 18 | 90 | 9.7 | 0.0 | 0.00 | 0.00 | 0.00 | 45 | 1064.2 |
| 20260508150702 | 18 | 22 | 17.7 | 0.0 | 0.00 | 0.00 | 0.00 | 45 | 1064.2 |
| 20260508150557 | 18 | 45 | 29.0 | 0.0 | 0.00 | 0.00 | 0.00 | 46 | 1064.1 |
| 20260508150435 | 18 | 45 | 19.3 | 0.0 | 0.00 | 0.00 | 0.00 | 46 | 1064.2 |
| 20260508150314 | 18 | 0 | 14.5 | 0.0 | 0.00 | 0.00 | 0.00 | 46 | 1064.2 |
| 20260508150201 | 18 | 45 | 9.7 | 0.0 | 0.00 | 0.00 | 0.00 | 45 | 1064.2 |
| 20260508150040 | 18 | 45 | 9.7 | 0.0 | 0.00 | 0.00 | 0.00 | 46 | 1064.2 |
| 20260508145927 | 18 | 45 | 0.0 | 0.0 | 0.00 | 0.00 | 0.00 | 45 | 1064.2 |
| 20260508145813 | 18 | 45 | 19.3 | 0.0 | 0.00 | 0.00 | 0.00 | 44 | 1064.3 |
| 20260508145700 | 18 | 90 | 12.9 | 0.0 | 0.00 | 0.00 | 0.00 | 44 | 1064.2 |
| 20260508145539 | 18 | 0 | 11.3 | 0.0 | 0.00 | 0.00 | 0.00 | 44 | 1064.2 |
| 20260508145426 | 18 | 67 | 14.5 | 0.0 | 0.00 | 0.00 | 0.00 | 43 | 1064.2 |
| 20260508145313 | 18 | 67 | 12.9 | 0.0 | 0.00 | 0.00 | 0.00 | 42 | 1064.2 |
| 20260508145202 | 18 | 67 | 16.1 | 0.0 | 0.00 | 0.00 | 0.00 | 42 | 1064.3 |
| 20260508145056 | 18 | 45 | 9.7 | 0.0 | 0.00 | 0.00 | 0.00 | 44 | 1064.2 |
| 20260508144950 | 18 | 67 | 11.3 | 0.0 | 0.00 | 0.00 | 0.00 | 45 | 1064.3 |
| 20260508144836 | 18 | 45 | 8.0 | 0.0 | 0.00 | 0.00 | 0.00 | 46 | 1064.2 |
| 20260508144716 | 17 | 90 | 20.9 | 0.0 | 0.00 | 0.00 | 0.00 | 46 | 1064.2 |
| 20260508144610 | 17 | 22 | 12.9 | 0.0 | 0.00 | 0.00 | 0.00 | 47 | 1064.2 |
| 20260508144457 | 17 | 0 | 11.3 | 0.0 | 0.00 | 0.00 | 0.00 | 46 | 1064.3 |
| 20260508144343 | 17 | 67 | 11.3 | 0.0 | 0.00 | 0.00 | 0.00 | 46 | 1064.3 |
| 20260508144225 | 18 | 90 | 20.9 | 0.0 | 0.00 | 0.00 | 0.00 | 46 | 1064.2 |
| 20260508144118 | 18 | 22 | 20.9 | 0.0 | 0.00 | 0.00 | 0.00 | 45 | 1064.2 |
| 20260508143956 | 18 | 45 | 11.3 | 0.0 | 0.00 | 0.00 | 0.00 | 45 | 1064.2 |
| 20260508143835 | 18 | 45 | 24.1 | 0.0 | 0.00 | 0.00 | 0.00 | 45 | 1064.2 |
| 20260508143715 | 18 | 90 | 19.3 | 0.0 | 0.00 | 0.00 | 0.00 | 45 | 1064.2 |
| 20260508143609 | 18 | 67 | 16.1 | 0.0 | 0.00 | 0.00 | 0.00 | 45 | 1064.3 |
| 20260508143504 | 18 | 22 | 0.0 | 0.0 | 0.00 | 0.00 | 0.00 | 44 | 1064.3 |
| 20260508143351 | 18 | 67 | 22.5 | 0.0 | 0.00 | 0.00 | 0.00 | 44 | 1064.4 |
| 20260508143230 | 18 | 45 | 27.4 | 0.0 | 0.00 | 0.00 | 0.00 | 44 | 1064.5 |
| 20260508143117 | 18 | 67 | 14.5 | 0.0 | 0.00 | 0.00 | 0.00 | 43 | 1064.4 |
| 20260508143013 | 18 | 112 | 12.9 | 0.0 | 0.00 | 0.00 | 0.00 | 42 | 1064.4 |
| 20260508142858 | 18 | 45 | 8.0 | 0.0 | 0.00 | 0.00 | 0.00 | 42 | 1064.4 |
| 20260508142746 | 18 | 90 | 27.4 | 0.0 | 0.00 | 0.00 | 0.00 | 45 | 1064.4 |
| 20260508142640 | 18 | 22 | 12.9 | 0.0 | 0.00 | 0.00 | 0.00 | 46 | 1064.4 |
| 20260508142519 | 18 | 67 | 22.5 | 0.0 | 0.00 | 0.00 | 0.00 | 45 | 1064.3 |
| 20260508142359 | 18 | 22 | 11.3 | 0.0 | 0.00 | 0.00 | 0.00 | 45 | 1064.4 |
| 20260508142253 | 18 | 337 | 6.4 | 0.0 | 0.00 | 0.00 | 0.00 | 44 | 1064.5 |
| 20260508142131 | 18 | 0 | 14.5 | 0.0 | 0.00 | 0.00 | 0.00 | 44 | 1064.6 |
| 20260508142012 | 18 | 45 | 6.4 | 0.0 | 0.00 | 0.00 | 0.00 | 44 | 1064.4 |
| 20260508141907 | 18 | 112 | 24.1 | 0.0 | 0.00 | 0.00 | 0.00 | 44 | 1064.5 |
| 20260508141755 | 18 | 0 | 20.9 | 0.0 | 0.00 | 0.00 | 0.00 | 44 | 1064.6 |
| 20260508141647 | 18 | 22 | 29.0 | 0.0 | 0.00 | 0.00 | 0.00 | 45 | 1064.5 |
| 20260508141534 | 18 | 90 | 12.9 | 0.0 | 0.00 | 0.00 | 0.00 | 44 | 1064.6 |
| 20260508141423 | 18 | 45 | 14.5 | 0.0 | 0.00 | 0.00 | 0.00 | 44 | 1064.6 |
| 20260508141310 | 18 | 112 | 19.3 | 0.0 | 0.00 | 0.00 | 0.00 | 44 | 1064.5 |
| 20260508141155 | 17 | 0 | 8.0 | 0.0 | 0.00 | 0.00 | 0.00 | 46 | 1064.5 |
| 20260508141042 | 17 | 67 | 9.7 | 0.0 | 0.00 | 0.00 | 0.00 | 47 | 1064.6 |
| 20260508140929 | 17 | 45 | 9.7 | 0.0 | 0.00 | 0.00 | 0.00 | 48 | 1064.5 |
| 20260508140825 | 17 | 45 | 12.9 | 0.0 | 0.00 | 0.00 | 0.00 | 48 | 1064.5 |
| 20260508140719 | 17 | 22 | 14.5 | 0.0 | 0.00 | 0.00 | 0.00 | 47 | 1064.6 |
| 20260508140559 | 17 | 0 | 14.5 | 0.0 | 0.00 | 0.00 | 0.00 | 47 | 1064.6 |
| 20260508140453 | 17 | 45 | 16.1 | 0.0 | 0.00 | 0.00 | 0.00 | 46 | 1064.7 |
| 20260508140339 | 17 | 67 | 20.9 | 0.0 | 0.00 | 0.00 | 0.00 | 46 | 1064.7 |
| 20260508140218 | 16 | 0 | 3.2 | 0.0 | 0.00 | 0.00 | 0.00 | 47 | 1064.7 |
| 20260508140105 | 16 | 0 | 19.3 | 0.0 | 0.00 | 0.00 | 0.00 | 47 | 1064.7 |
| 20260508135952 | 16 | 45 | 12.9 | 0.0 | 0.00 | 0.00 | 0.00 | 47 | 1064.8 |
| 20260508135847 | 16 | 45 | 17.7 | 0.0 | 0.00 | 0.00 | 0.00 | 48 | 1064.8 |
| 20260508135729 | 16 | 45 | 19.3 | 0.0 | 0.00 | 0.00 | 0.00 | 48 | 1064.7 |
| 20260508135624 | 16 | 45 | 17.7 | 0.0 | 0.00 | 0.00 | 0.00 | 48 | 1064.7 |
| 20260508135507 | 16 | 67 | 8.0 | 0.0 | 0.00 | 0.00 | 0.00 | 47 | 1064.8 |
| 20260508135354 | 16 | 90 | 6.4 | 0.0 | 0.00 | 0.00 | 0.00 | 46 | 1064.8 |
| 20260508135233 | 16 | 45 | 25.7 | 0.0 | 0.00 | 0.00 | 0.00 | 46 | 1064.8 |
| 20260508135112 | 16 | 22 | 19.3 | 0.0 | 0.00 | 0.00 | 0.00 | 47 | 1064.8 |
| 20260508135008 | 16 | 45 | 37.0 | 0.0 | 0.00 | 0.00 | 0.00 | 50 | 1064.8 |
| 20260508134901 | 16 | 45 | 14.5 | 0.0 | 0.00 | 0.00 | 0.00 | 50 | 1064.7 |
| 20260508134741 | 16 | 112 | 9.7 | 0.0 | 0.00 | 0.00 | 0.00 | 51 | 1064.8 |
| 20260508134635 | 16 | 45 | 17.7 | 0.0 | 0.00 | 0.00 | 0.00 | 50 | 1064.7 |
| 20260508134521 | 16 | 90 | 20.9 | 0.0 | 0.00 | 0.00 | 0.00 | 49 | 1064.8 |
| 20260508134408 | 16 | 45 | 12.9 | 0.0 | 0.00 | 0.00 | 0.00 | 50 | 1064.8 |
| 20260508134255 | 16 | 45 | 14.5 | 0.0 | 0.00 | 0.00 | 0.00 | 49 | 1064.8 |
| 20260508134142 | 16 | 22 | 12.9 | 0.0 | 0.00 | 0.00 | 0.00 | 50 | 1064.7 |
| 20260508134029 | 16 | 45 | 27.4 | 0.0 | 0.00 | 0.00 | 0.00 | 49 | 1064.7 |
| 20260508133916 | 16 | 22 | 8.0 | 0.0 | 0.00 | 0.00 | 0.00 | 49 | 1064.8 |
| 20260508133810 | 16 | 67 | 24.1 | 0.0 | 0.00 | 0.00 | 0.00 | 50 | 1064.8 |
| 20260508133650 | 16 | 45 | 0.0 | 0.0 | 0.00 | 0.00 | 0.00 | 50 | 1064.7 |
| 20260508133536 | 16 | 90 | 22.5 | 0.0 | 0.00 | 0.00 | 0.00 | 50 | 1064.8 |
| 20260508133426 | 16 | 67 | 20.9 | 0.0 | 0.00 | 0.00 | 0.00 | 50 | 1064.8 |
| 20260508133319 | 16 | 67 | 12.9 | 0.0 | 0.00 | 0.00 | 0.00 | 49 | 1064.8 |
| 20260508133214 | 16 | 45 | 11.3 | 0.0 | 0.00 | 0.00 | 0.00 | 49 | 1064.7 |
| 20260508133107 | 16 | 0 | 17.7 | 0.0 | 0.00 | 0.00 | 0.00 | 50 | 1064.7 |
| 20260508133002 | 16 | 45 | 0.0 | 0.0 | 0.00 | 0.00 | 0.00 | 49 | 1064.7 |
| 20260508132857 | 16 | 45 | 19.3 | 0.0 | 0.00 | 0.00 | 0.00 | 49 | 1064.7 |
| 20260508132744 | 16 | 45 | 14.5 | 0.0 | 0.00 | 0.00 | 0.00 | 50 | 1064.7 |
| 20260508132639 | 16 | 67 | 30.6 | 0.0 | 0.00 | 0.00 | 0.00 | 50 | 1064.7 |
| 20260508132525 | 16 | 90 | 11.3 | 0.0 | 0.00 | 0.00 | 0.00 | 51 | 1064.8 |
| 20260508132413 | 16 | 90 | 11.3 | 0.0 | 0.00 | 0.00 | 0.00 | 50 | 1064.8 |
| 20260508132300 | 16 | 0 | 16.1 | 0.0 | 0.00 | 0.00 | 0.00 | 51 | 1064.8 |
| 20260508132154 | 16 | 45 | 16.1 | 0.0 | 0.00 | 0.00 | 0.00 | 52 | 1064.8 |
| 20260508132042 | 16 | 67 | 0.0 | 0.0 | 0.00 | 0.00 | 0.00 | 52 | 1064.8 |
| 20260508131936 | 16 | 90 | 6.4 | 0.0 | 0.00 | 0.00 | 0.00 | 51 | 1064.8 |
| 20260508131815 | 16 | 45 | 22.5 | 0.0 | 0.00 | 0.00 | 0.00 | 51 | 1064.8 |
| 20260508131653 | 16 | 112 | 19.3 | 0.0 | 0.00 | 0.00 | 0.00 | 51 | 1064.8 |
| 20260508131541 | 16 | 112 | 17.7 | 0.0 | 0.00 | 0.00 | 0.00 | 51 | 1064.8 |
| 20260508131428 | 16 | 90 | 25.7 | 0.0 | 0.00 | 0.00 | 0.00 | 52 | 1064.9 |
| 20260508131314 | 16 | 45 | 11.3 | 0.0 | 0.00 | 0.00 | 0.00 | 51 | 1064.8 |
| 20260508131209 | 16 | 67 | 8.0 | 0.0 | 0.00 | 0.00 | 0.00 | 51 | 1064.8 |
| 20260508131040 | 16 | 45 | 24.1 | 0.0 | 0.00 | 0.00 | 0.00 | 52 | 1064.9 |
| 20260508130927 | 16 | 90 | 27.4 | 0.0 | 0.00 | 0.00 | 0.00 | 52 | 1064.9 |
| 20260508130822 | 16 | 45 | 12.9 | 0.0 | 0.00 | 0.00 | 0.00 | 52 | 1064.9 |
| 20260508130700 | 16 | 45 | 11.3 | 0.0 | 0.00 | 0.00 | 0.00 | 51 | 1064.8 |
| 20260508130548 | 16 | 22 | 19.3 | 0.0 | 0.00 | 0.00 | 0.00 | 50 | 1064.8 |
| 20260508130435 | 16 | 45 | 9.7 | 0.0 | 0.00 | 0.00 | 0.00 | 50 | 1064.9 |
| 20260508130330 | 16 | 90 | 27.4 | 0.0 | 0.00 | 0.00 | 0.00 | 51 | 1064.9 |
| 20260508130224 | 16 | 0 | 14.5 | 0.0 | 0.00 | 0.00 | 0.00 | 51 | 1064.9 |
| 20260508130113 | 16 | 45 | 0.0 | 0.0 | 0.00 | 0.00 | 0.00 | 51 | 1064.9 |
| 20260508130008 | 16 | 45 | 14.5 | 0.0 | 0.00 | 0.00 | 0.00 | 50 | 1064.9 |
| 20260508125901 | 16 | 22 | 20.9 | 0.0 | 0.00 | 0.00 | 0.00 | 51 | 1064.9 |
| 20260508125748 | 16 | 45 | 17.7 | 0.0 | 0.00 | 0.00 | 0.00 | 52 | 1064.8 |
| 20260508125627 | 16 | 45 | 6.4 | 0.0 | 0.00 | 0.00 | 0.00 | 52 | 1064.9 |
| 20260508125522 | 16 | 67 | 8.0 | 0.0 | 0.00 | 0.00 | 0.00 | 52 | 1064.9 |
| 20260508125409 | 16 | 67 | 0.0 | 0.0 | 0.00 | 0.00 | 0.00 | 51 | 1064.9 |
| 20260508125306 | 16 | 67 | 17.7 | 0.0 | 0.00 | 0.00 | 0.00 | 51 | 1065.0 |
| 20260508125153 | 16 | 90 | 9.7 | 0.0 | 0.00 | 0.00 | 0.00 | 51 | 1064.9 |
| 20260508125047 | 16 | 22 | 11.3 | 0.0 | 0.00 | 0.00 | 0.00 | 51 | 1064.9 |
| 20260508124940 | 16 | 67 | 12.9 | 0.0 | 0.00 | 0.00 | 0.00 | 50 | 1064.9 |
| 20260508124820 | 16 | 112 | 17.7 | 0.0 | 0.00 | 0.00 | 0.00 | 49 | 1064.9 |
| 20260508124714 | 16 | 67 | 19.3 | 0.0 | 0.00 | 0.00 | 0.00 | 49 | 1064.9 |
| 20260508124601 | 16 | 45 | 19.3 | 0.0 | 0.00 | 0.00 | 0.00 | 48 | 1065.0 |
| 20260508124448 | 16 | 112 | 14.5 | 0.0 | 0.00 | 0.00 | 0.00 | 48 | 1065.1 |
| 20260508124337 | 16 | 90 | 19.3 | 0.0 | 0.00 | 0.00 | 0.00 | 48 | 1065.1 |
| 20260508124231 | 17 | 45 | 9.7 | 0.0 | 0.00 | 0.00 | 0.00 | 47 | 1065.1 |
| 20260508124117 | 17 | 135 | 17.7 | 0.0 | 0.00 | 0.00 | 0.00 | 48 | 1065.1 |
| 20260508124011 | 17 | 112 | 0.0 | 0.0 | 0.00 | 0.00 | 0.00 | 48 | 1065.1 |
| 20260508123851 | 17 | 90 | 22.5 | 0.0 | 0.00 | 0.00 | 0.00 | 47 | 1065.1 |
| 20260508123738 | 17 | 135 | 11.3 | 0.0 | 0.00 | 0.00 | 0.00 | 46 | 1065.2 |
| 20260508123631 | 17 | 135 | 17.7 | 0.0 | 0.00 | 0.00 | 0.00 | 43 | 1065.1 |
| 20260508123520 | 17 | 135 | 11.3 | 0.0 | 0.00 | 0.00 | 0.00 | 43 | 1065.1 |
| 20260508123357 | 17 | 135 | 17.7 | 0.0 | 0.00 | 0.00 | 0.00 | 45 | 1064.9 |
| 20260508123245 | 18 | 22 | 14.5 | 0.0 | 0.00 | 0.00 | 0.00 | 43 | 1064.9 |
| 20260508123132 | 18 | 45 | 0.0 | 0.0 | 0.00 | 0.00 | 0.00 | 42 | 1065.0 |
| 20260508123019 | 18 | 90 | 0.0 | 0.0 | 0.00 | 0.00 | 0.00 | 40 | 1065.1 |
| 20260508122914 | 18 | 112 | 0.0 | 0.0 | 0.00 | 0.00 | 0.00 | 38 | 1065.1 |
| 20260508122801 | 18 | 90 | 16.1 | 0.0 | 0.00 | 0.00 | 0.00 | 37 | 1065.0 |
| 20260508122649 | 18 | 112 | 6.4 | 0.0 | 0.00 | 0.00 | 0.00 | 38 | 1065.0 |
| 20260508122538 | 18 | 112 | 8.0 | 0.0 | 0.00 | 0.00 | 0.00 | 40 | 1065.1 |
| 20260508122422 | 18 | 112 | 0.0 | 0.0 | 0.00 | 0.00 | 0.00 | 42 | 1065.0 |
| 20260508122317 | 18 | 90 | 0.0 | 0.0 | 0.00 | 0.00 | 0.00 | 41 | 1065.1 |
| 20260508122205 | 18 | 112 | 12.9 | 0.0 | 0.00 | 0.00 | 0.00 | 37 | 1065.2 |
| 20260508122051 | 18 | 112 | 19.3 | 0.0 | 0.00 | 0.00 | 0.00 | 35 | 1065.1 |
| 20260508121946 | 18 | 112 | 6.4 | 0.0 | 0.00 | 0.00 | 0.00 | 34 | 1065.1 |
| 20260508121833 | 19 | 135 | 16.1 | 0.0 | 0.00 | 0.00 | 0.00 | 34 | 1064.9 |
| 20260508121728 | 19 | 112 | 19.3 | 0.0 | 0.00 | 0.00 | 0.00 | 33 | 1065.0 |
| 20260508121622 | 19 | 67 | 14.5 | 0.0 | 0.00 | 0.00 | 0.00 | 33 | 1065.0 |
| 20260508121501 | 19 | 45 | 6.4 | 0.0 | 0.00 | 0.00 | 0.00 | 34 | 1065.0 |
| 20260508121341 | 19 | 22 | 9.7 | 0.0 | 0.00 | 0.00 | 0.00 | 33 | 1065.0 |
| 20260508121227 | 19 | 45 | 11.3 | 0.0 | 0.00 | 0.00 | 0.00 | 33 | 1065.0 |
| 20260508121115 | 20 | 112 | 20.9 | 0.0 | 0.00 | 0.00 | 0.00 | 33 | 1065.1 |
| 20260508121002 | 20 | 90 | 8.0 | 0.0 | 0.00 | 0.00 | 0.00 | 33 | 1065.1 |
| 20260508120848 | 20 | 112 | 17.7 | 0.0 | 0.00 | 0.00 | 0.00 | 33 | 1065.1 |
| 20260508120728 | 20 | 45 | 11.3 | 0.0 | 0.00 | 0.00 | 0.00 | 34 | 1065.1 |
| 20260508120625 | 20 | 112 | 1.6 | 0.0 | 0.00 | 0.00 | 0.00 | 33 | 1065.1 |
| 20260508120517 | 20 | 112 | 9.7 | 0.0 | 0.00 | 0.00 | 0.00 | 32 | 1065.1 |
| 20260508120355 | 20 | 135 | 17.7 | 0.0 | 0.00 | 0.00 | 0.00 | 33 | 1065.1 |
| 20260508120236 | 81 | 112 | 11.3 | 0.0 | 0.00 | 0.00 | 0.00 | 11 | 1065.1 |
| 20260508120130 | 81 | 112 | 20.9 | 0.0 | 0.00 | 0.00 | 0.00 | 11 | 1065.1 |
| 20260508120011 | 20 | 112 | 9.7 | 0.0 | 0.00 | 0.00 | 0.00 | 32 | 1065.1 |
| 20260508115905 | 20 | 135 | 12.9 | 0.0 | 0.00 | 0.00 | 0.00 | 33 | 1065.1 |
| 20260508115744 | 20 | 135 | 11.3 | 0.0 | 0.00 | 0.00 | 0.00 | 33 | 1065.1 |
| 20260508115621 | 20 | 135 | 6.4 | 0.0 | 0.00 | 0.00 | 0.00 | 34 | 1065.1 |
| 20260508115501 | 20 | 90 | 0.0 | 0.0 | 0.00 | 0.00 | 0.00 | 34 | 1065.1 |
| 20260508115349 | 20 | 135 | 17.7 | 0.0 | 0.00 | 0.00 | 0.00 | 33 | 1065.1 |
| 20260508115236 | 19 | 135 | 20.9 | 0.0 | 0.00 | 0.00 | 0.00 | 34 | 1065.1 |
| 20260508115125 | 19 | 157 | 14.5 | 0.0 | 0.00 | 0.00 | 0.00 | 35 | 1065.0 |
| 20260508115019 | 19 | 112 | 0.0 | 0.0 | 0.00 | 0.00 | 0.00 | 35 | 1065.0 |
| 20260508114907 | 19 | 45 | 0.0 | 0.0 | 0.00 | 0.00 | 0.00 | 34 | 1065.1 |
| 20260508114800 | 19 | 90 | 0.0 | 0.0 | 0.00 | 0.00 | 0.00 | 35 | 1065.1 |
| 20260508114637 | 19 | 112 | 0.0 | 0.0 | 0.00 | 0.00 | 0.00 | 34 | 1065.1 |
| 20260508114517 | 19 | 157 | 20.9 | 0.0 | 0.00 | 0.00 | 0.00 | 33 | 1065.2 |
| 20260508114403 | 20 | 157 | 22.5 | 0.0 | 0.00 | 0.00 | 0.00 | 33 | 1065.1 |
| 20260508114251 | 20 | 112 | 11.3 | 0.0 | 0.00 | 0.00 | 0.00 | 33 | 1065.1 |
| 20260508114146 | 20 | 135 | 14.5 | 0.0 | 0.00 | 0.00 | 0.00 | 33 | 1065.2 |
| 20260508114026 | 20 | 90 | 14.5 | 0.0 | 0.00 | 0.00 | 0.00 | 33 | 1065.1 |
| 20260508113853 | 20 | 135 | 9.7 | 0.0 | 0.00 | 0.00 | 0.00 | 34 | 1065.0 |
| 20260508113730 | 20 | 22 | 0.0 | 0.0 | 0.00 | 0.00 | 0.00 | 34 | 1065.1 |
| 20260508113616 | 20 | 135 | 17.7 | 0.0 | 0.00 | 0.00 | 0.00 | 34 | 1065.2 |
| 20260508113444 | 20 | 157 | 0.0 | 0.0 | 0.00 | 0.00 | 0.00 | 34 | 1065.2 |
| 20260508113315 | 20 | 135 | 0.0 | 0.0 | 0.00 | 0.00 | 0.00 | 33 | 1065.3 |
| 20260508113156 | 20 | 67 | 12.9 | 0.0 | 0.00 | 0.00 | 0.00 | 34 | 1065.4 |
| 20260508113051 | 20 | 112 | 9.7 | 0.0 | 0.00 | 0.00 | 0.00 | 34 | 1065.3 |
| 20260508112945 | 20 | 112 | 9.7 | 0.0 | 0.00 | 0.00 | 0.00 | 34 | 1065.2 |
| 20260508112817 | 20 | 135 | 11.3 | 0.0 | 0.00 | 0.00 | 0.00 | 33 | 1065.2 |
| 20260508112712 | 20 | 112 | 8.0 | 0.0 | 0.00 | 0.00 | 0.00 | 34 | 1065.3 |
| 20260508112551 | 19 | 157 | 11.3 | 0.0 | 0.00 | 0.00 | 0.00 | 35 | 1065.3 |
| 20260508112430 | 19 | 112 | 3.2 | 0.0 | 0.00 | 0.00 | 0.00 | 34 | 1065.3 |
| 20260508112325 | 19 | 135 | 6.4 | 0.0 | 0.00 | 0.00 | 0.00 | 35 | 1065.3 |
| 20260508112212 | 19 | 67 | 6.4 | 0.0 | 0.00 | 0.00 | 0.00 | 35 | 1065.3 |
| 20260508112100 | 19 | 135 | 9.7 | 0.0 | 0.00 | 0.00 | 0.00 | 35 | 1065.3 |
| 20260508111954 | 19 | 45 | 9.7 | 0.0 | 0.00 | 0.00 | 0.00 | 34 | 1065.4 |
| 20260508111832 | 18 | 90 | 9.7 | 0.0 | 0.00 | 0.00 | 0.00 | 35 | 1065.5 |
| 20260508111703 | 19 | 67 | 9.7 | 0.0 | 0.00 | 0.00 | 0.00 | 33 | 1065.4 |
| 20260508111549 | 19 | 67 | 11.3 | 0.0 | 0.00 | 0.00 | 0.00 | 34 | 1065.4 |
| 20260508111420 | 19 | 90 | 12.9 | 0.0 | 0.00 | 0.00 | 0.00 | 34 | 1065.5 |
| 20260508111301 | 19 | 112 | 16.1 | 0.0 | 0.00 | 0.00 | 0.00 | 34 | 1065.4 |
| 20260508111153 | 18 | 112 | 14.5 | 0.0 | 0.00 | 0.00 | 0.00 | 34 | 1065.4 |
| 20260508111033 | 19 | 135 | 9.7 | 0.0 | 0.00 | 0.00 | 0.00 | 33 | 1065.4 |
| 20260508110918 | 19 | 112 | 19.3 | 0.0 | 0.00 | 0.00 | 0.00 | 34 | 1065.4 |
| 20260508110749 | 19 | 112 | 9.7 | 0.0 | 0.00 | 0.00 | 0.00 | 33 | 1065.3 |
| 20260508110620 | 19 | 90 | 24.1 | 0.0 | 0.00 | 0.00 | 0.00 | 35 | 1065.3 |
| 20260508110451 | 19 | 90 | 11.3 | 0.0 | 0.00 | 0.00 | 0.00 | 35 | 1065.4 |
| 20260508110332 | 19 | 135 | 9.7 | 0.0 | 0.00 | 0.00 | 0.00 | 34 | 1065.4 |
| 20260508110227 | 19 | 90 | 11.3 | 0.0 | 0.00 | 0.00 | 0.00 | 34 | 1065.4 |
| 20260508110120 | 19 | 90 | 22.5 | 0.0 | 0.00 | 0.00 | 0.00 | 34 | 1065.4 |
| 20260508110007 | 19 | 135 | 11.3 | 0.0 | 0.00 | 0.00 | 0.00 | 33 | 1065.4 |
| 20260508105853 | 19 | 90 | 27.4 | 0.0 | 0.00 | 0.00 | 0.00 | 34 | 1065.4 |
| 20260508105734 | 19 | 45 | 9.7 | 0.0 | 0.00 | 0.00 | 0.00 | 35 | 1065.4 |
| 20260508105619 | 19 | 112 | 20.9 | 0.0 | 0.00 | 0.00 | 0.00 | 35 | 1065.4 |
| 20260508105450 | 18 | 135 | 14.5 | 0.0 | 0.00 | 0.00 | 0.00 | 36 | 1065.3 |
| 20260508105336 | 18 | 22 | 0.0 | 0.0 | 0.00 | 0.00 | 0.00 | 35 | 1065.3 |
| 20260508105218 | 18 | 112 | 11.3 | 0.0 | 0.00 | 0.00 | 0.00 | 34 | 1065.3 |
| 20260508105110 | 18 | 135 | 11.3 | 0.0 | 0.00 | 0.00 | 0.00 | 35 | 1065.3 |
| 20260508104949 | 18 | 135 | 20.9 | 0.0 | 0.00 | 0.00 | 0.00 | 35 | 1065.3 |
| 20260508104820 | 18 | 135 | 8.0 | 0.0 | 0.00 | 0.00 | 0.00 | 34 | 1065.4 |
| 20260508104707 | 18 | 135 | 9.7 | 0.0 | 0.00 | 0.00 | 0.00 | 35 | 1065.4 |
| 20260508104539 | 18 | 135 | 9.7 | 0.0 | 0.00 | 0.00 | 0.00 | 35 | 1065.4 |
| 20260508104424 | 18 | 135 | 12.9 | 0.0 | 0.00 | 0.00 | 0.00 | 34 | 1065.3 |
| 20260508104314 | 18 | 90 | 22.5 | 0.0 | 0.00 | 0.00 | 0.00 | 34 | 1065.3 |
| 20260508104207 | 18 | 135 | 14.5 | 0.0 | 0.00 | 0.00 | 0.00 | 34 | 1065.4 |
| 20260508104054 | 19 | 157 | 11.3 | 0.0 | 0.00 | 0.00 | 0.00 | 33 | 1065.3 |
| 20260508103933 | 19 | 135 | 16.1 | 0.0 | 0.00 | 0.00 | 0.00 | 35 | 1065.4 |
| 20260508103827 | 18 | 135 | 9.7 | 0.0 | 0.00 | 0.00 | 0.00 | 34 | 1065.3 |
| 20260508103700 | 19 | 112 | 0.0 | 0.0 | 0.00 | 0.00 | 0.00 | 33 | 1065.4 |
| 20260508103555 | 19 | 112 | 16.1 | 0.0 | 0.00 | 0.00 | 0.00 | 34 | 1065.3 |
| 20260508103448 | 19 | 112 | 0.0 | 0.0 | 0.00 | 0.00 | 0.00 | 35 | 1065.3 |
| 20260508103328 | 19 | 135 | 8.0 | 0.0 | 0.00 | 0.00 | 0.00 | 34 | 1065.3 |
| 20260508103214 | 19 | 135 | 14.5 | 0.0 | 0.00 | 0.00 | 0.00 | 35 | 1065.3 |
| 20260508103111 | 19 | 112 | 9.7 | 0.0 | 0.00 | 0.00 | 0.00 | 34 | 1065.3 |
| 20260508103005 | 19 | 90 | 17.7 | 0.0 | 0.00 | 0.00 | 0.00 | 34 | 1065.3 |
| 20260508102850 | 19 | 112 | 16.1 | 0.0 | 0.00 | 0.00 | 0.00 | 34 | 1065.3 |
| 20260508102737 | 18 | 135 | 12.9 | 0.0 | 0.00 | 0.00 | 0.00 | 34 | 1065.3 |
| 20260508102625 | 18 | 45 | 9.7 | 0.0 | 0.00 | 0.00 | 0.00 | 35 | 1065.4 |
| 20260508102518 | 18 | 135 | 24.1 | 0.0 | 0.00 | 0.00 | 0.00 | 34 | 1065.3 |
| 20260508102406 | 18 | 67 | 9.7 | 0.0 | 0.00 | 0.00 | 0.00 | 34 | 1065.3 |
| 20260508102253 | 18 | 135 | 12.9 | 0.0 | 0.00 | 0.00 | 0.00 | 35 | 1065.3 |
| 20260508102140 | 18 | 135 | 11.3 | 0.0 | 0.00 | 0.00 | 0.00 | 35 | 1065.4 |
| 20260508102035 | 18 | 45 | 9.7 | 0.0 | 0.00 | 0.00 | 0.00 | 35 | 1065.3 |
| 20260508101921 | 18 | 135 | 9.7 | 0.0 | 0.00 | 0.00 | 0.00 | 35 | 1065.4 |
| 20260508101801 | 18 | 112 | 14.5 | 0.0 | 0.00 | 0.00 | 0.00 | 36 | 1065.4 |
| 20260508101649 | 18 | 135 | 16.1 | 0.0 | 0.00 | 0.00 | 0.00 | 35 | 1065.3 |
| 20260508101533 | 18 | 180 | 17.7 | 0.0 | 0.00 | 0.00 | 0.00 | 35 | 1065.4 |
| 20260508101413 | 18 | 135 | 14.5 | 0.0 | 0.00 | 0.00 | 0.00 | 36 | 1065.4 |
| 20260508101259 | 18 | 90 | 8.0 | 0.0 | 0.00 | 0.00 | 0.00 | 36 | 1065.4 |
| 20260508101131 | 18 | 157 | 14.5 | 0.0 | 0.00 | 0.00 | 0.00 | 36 | 1065.4 |
| 20260508101019 | 18 | 112 | 14.5 | 0.0 | 0.00 | 0.00 | 0.00 | 35 | 1065.4 |
| 20260508100915 | 18 | 90 | 12.9 | 0.0 | 0.00 | 0.00 | 0.00 | 35 | 1065.4 |
| 20260508100755 | 18 | 112 | 6.4 | 0.0 | 0.00 | 0.00 | 0.00 | 35 | 1065.5 |
| 20260508100650 | 18 | 90 | 11.3 | 0.0 | 0.00 | 0.00 | 0.00 | 35 | 1065.4 |
| 20260508100538 | 18 | 135 | 17.7 | 0.0 | 0.00 | 0.00 | 0.00 | 35 | 1065.4 |
| 20260508100430 | 18 | 112 | 12.9 | 0.0 | 0.00 | 0.00 | 0.00 | 34 | 1065.4 |
| 20260508100318 | 18 | 157 | 19.3 | 0.0 | 0.00 | 0.00 | 0.00 | 34 | 1065.4 |
| 20260508100205 | 18 | 112 | 9.7 | 0.0 | 0.00 | 0.00 | 0.00 | 34 | 1065.4 |
| 20260508100054 | 18 | 135 | 20.9 | 0.0 | 0.00 | 0.00 | 0.00 | 35 | 1065.5 |
| 20260508095939 | 18 | 135 | 24.1 | 0.0 | 0.00 | 0.00 | 0.00 | 35 | 1065.4 |
| 20260508095826 | 18 | 135 | 19.3 | 0.0 | 0.00 | 0.00 | 0.00 | 36 | 1065.3 |
| 20260508095722 | 18 | 112 | 8.0 | 0.0 | 0.00 | 0.00 | 0.00 | 36 | 1065.4 |
| 20260508095617 | 18 | 135 | 9.7 | 0.0 | 0.00 | 0.00 | 0.00 | 36 | 1065.4 |
| 20260508095512 | 18 | 135 | 24.1 | 0.0 | 0.00 | 0.00 | 0.00 | 36 | 1065.4 |
| 20260508095407 | 18 | 157 | 14.5 | 0.0 | 0.00 | 0.00 | 0.00 | 36 | 1065.4 |
| 20260508095306 | 18 | 135 | 12.9 | 0.0 | 0.00 | 0.00 | 0.00 | 35 | 1065.4 |
| 20260508095150 | 18 | 135 | 8.0 | 0.0 | 0.00 | 0.00 | 0.00 | 35 | 1065.4 |
| 20260508095043 | 18 | 135 | 20.9 | 0.0 | 0.00 | 0.00 | 0.00 | 35 | 1065.5 |
| 20260508094923 | 18 | 135 | 22.5 | 0.0 | 0.00 | 0.00 | 0.00 | 35 | 1065.4 |
| 20260508094811 | 18 | 90 | 11.3 | 0.0 | 0.00 | 0.00 | 0.00 | 34 | 1065.4 |
| 20260508094706 | 18 | 157 | 24.1 | 0.0 | 0.00 | 0.00 | 0.00 | 35 | 1065.4 |
| 20260508094601 | 18 | 112 | 19.3 | 0.0 | 0.00 | 0.00 | 0.00 | 35 | 1065.3 |
| 20260508094449 | 18 | 135 | 0.0 | 0.0 | 0.00 | 0.00 | 0.00 | 35 | 1065.3 |
| 20260508094334 | 18 | 112 | 8.0 | 0.0 | 0.00 | 0.00 | 0.00 | 35 | 1065.4 |
| 20260508094212 | 18 | 112 | 17.7 | 0.0 | 0.00 | 0.00 | 0.00 | 35 | 1065.4 |
| 20260508094043 | 18 | 112 | 14.5 | 0.0 | 0.00 | 0.00 | 0.00 | 34 | 1065.6 |
| 20260508093930 | 19 | 135 | 9.7 | 0.0 | 0.00 | 0.00 | 0.00 | 35 | 1065.5 |
| 20260508093818 | 19 | 112 | 9.7 | 0.0 | 0.00 | 0.00 | 0.00 | 35 | 1065.5 |